Multibeam Report for EX1707


Ship Name: Okeanos Explorer
Chief Scientist: Elizabeth Lobecker
NOAA/OAR/OER
Source Organization: NOAA Office of Ocean Exploration and Research (OER)
Start Date: 2017-08-08
End Date: 2017-08-31


View ISO Metadata

Visit the full NCEI Bathymetry Viewer


Multibeam Bathymetry

Cruise Details

Project: Musicians Seamounts Telepresence Mapping
Instrument: Kongsberg EM302

Data Quality

Number of Files: 1397
Number of Records: 408137
BATHYMETRY DATA Quantity Percentage
Number of Beams 176314320 100%
Number of Good Beams 161947174 91.85%
Number of Zero Beams 5069 0.0%
Number of Flagged Beams 14362077 8.15%
AMPLITUDE DATA Quantity Percentage
Number of Beams 176314320 100%
Number of Good Beams 161947174 91.85%
Number of Zero Beams 5069 0.0%
Number of Flagged Beams 14362077 8.15%
SIDESCAN DATA Quantity Percentage
Number of Pixels 908560563 100%
Number of Good Pixels 846882065 93.21%
Number of Zero Pixels 0 0%
Number of Flagged Pixels 61678498 6.79%

Navigation Totals

Total Time: 1047.0004 hours
Total Track Length: 17627.2112 km
Average Speed: 16.836 km/hr (9.0907 knots)

Cruise Bounds

Northern Extent: 32.617504
Southern Extent: 21.02496
Western Extent: -164.15718
Eastern Extent: -157.95892

Limits

Minimum Sonar Depth 0 Maximum Sonar Depth 4.2934
Minimum Altitude 0 Maximum Altitude 6662.4775
Minimum Depth 292.1375 Maximum Depth 7395.1206
Minimum Amplitude 0 Maximum Amplitude 67
Minimum Sidescan 0 Maximum Sidescan 33479

File Information

Full Resolution Bathymetry as collected (raw): 663

Files File Size Description
0000_20170809_041835_EX1707_MB.all.mb58.gz 72.79MB Kongsberg multibeam vendor format
0001_20170809_044537_EX1707_MB.all.mb58.gz 106.97MB Kongsberg multibeam vendor format
0002_20170809_054537_EX1707_MB.all.mb58.gz 3.25MB Kongsberg multibeam vendor format
0003_20170809_194732_EX1707_MB.all.mb58.gz 66.03MB Kongsberg multibeam vendor format
0004_20170809_204735_EX1707_MB.all.mb58.gz 65.83MB Kongsberg multibeam vendor format
0005_20170809_214734_EX1707_MB.all.mb58.gz 65.73MB Kongsberg multibeam vendor format
0006_20170809_224726_EX1707_MB.all.mb58.gz 65.90MB Kongsberg multibeam vendor format
0007_20170809_234730_EX1707_MB.all.mb58.gz 65.73MB Kongsberg multibeam vendor format
0008_20170810_004721_EX1707_MB.all.mb58.gz 65.85MB Kongsberg multibeam vendor format
0009_20170810_014720_EX1707_MB.all.mb58.gz 66.13MB Kongsberg multibeam vendor format
0010_20170810_024719_EX1707_MB.all.mb58.gz 65.68MB Kongsberg multibeam vendor format
0011_20170810_034718_EX1707_MB.all.mb58.gz 65.75MB Kongsberg multibeam vendor format
0012_20170810_044719_EX1707_MB.all.mb58.gz 65.64MB Kongsberg multibeam vendor format
0013_20170810_054714_EX1707_MB.all.mb58.gz 65.56MB Kongsberg multibeam vendor format
0014_20170810_064714_EX1707_MB.all.mb58.gz 66.46MB Kongsberg multibeam vendor format
0015_20170810_074711_EX1707_MB.all.mb58.gz 65.89MB Kongsberg multibeam vendor format
0016_20170810_084711_EX1707_MB.all.mb58.gz 66.21MB Kongsberg multibeam vendor format
0017_20170810_094714_EX1707_MB.all.mb58.gz 66.12MB Kongsberg multibeam vendor format
0018_20170810_104715_EX1707_MB.all.mb58.gz 64.62MB Kongsberg multibeam vendor format
0019_20170810_114554_EX1707_MB.all.mb58.gz 6.77MB Kongsberg multibeam vendor format
0020_20170810_115158_EX1707_MB.all.mb58.gz 75.57MB Kongsberg multibeam vendor format
0021_20170810_125157_EX1707_MB.all.mb58.gz 79.01MB Kongsberg multibeam vendor format
0022_20170810_135202_EX1707_MB.all.mb58.gz 73.63MB Kongsberg multibeam vendor format
0023_20170810_145157_EX1707_MB.all.mb58.gz 31.06MB Kongsberg multibeam vendor format
0024_20170810_152015_EX1707_MB.all.mb58.gz 29.27MB Kongsberg multibeam vendor format
0025_20170810_154646_EX1707_MB.all.mb58.gz 66.21MB Kongsberg multibeam vendor format
0026_20170810_164645_EX1707_MB.all.mb58.gz 76.95MB Kongsberg multibeam vendor format
0027_20170810_174648_EX1707_MB.all.mb58.gz 73.74MB Kongsberg multibeam vendor format
0028_20170810_184650_EX1707_MB.all.mb58.gz 28.55MB Kongsberg multibeam vendor format
0029_20170810_190925_EX1707_MB.all.mb58.gz 5.62MB Kongsberg multibeam vendor format
0030_20170810_191351_EX1707_MB.all.mb58.gz 6.32MB Kongsberg multibeam vendor format
0031_20170810_191847_EX1707_MB.all.mb58.gz 72.96MB Kongsberg multibeam vendor format
0032_20170810_201847_EX1707_MB.all.mb58.gz 65.65MB Kongsberg multibeam vendor format
0033_20170810_211849_EX1707_MB.all.mb58.gz 65.47MB Kongsberg multibeam vendor format
0034_20170810_221853_EX1707_MB.all.mb58.gz 6.28MB Kongsberg multibeam vendor format
0035_20170810_222439_EX1707_MB.all.mb58.gz 65.43MB Kongsberg multibeam vendor format
0036_20170810_232435_EX1707_MB.all.mb58.gz 54.65MB Kongsberg multibeam vendor format
0037_20170811_001413_EX1707_MB.all.mb58.gz 47.13MB Kongsberg multibeam vendor format
0038_20170811_005045_EX1707_MB.all.mb58.gz 56.65MB Kongsberg multibeam vendor format
0039_20170811_014238_EX1707_MB.all.mb58.gz 64.98MB Kongsberg multibeam vendor format
0040_20170811_024235_EX1707_MB.all.mb58.gz 67.75MB Kongsberg multibeam vendor format
0041_20170811_034232_EX1707_MB.all.mb58.gz 65.70MB Kongsberg multibeam vendor format
0042_20170811_044237_EX1707_MB.all.mb58.gz 65.71MB Kongsberg multibeam vendor format
0043_20170811_054229_EX1707_MB.all.mb58.gz 66.13MB Kongsberg multibeam vendor format
0044_20170811_064235_EX1707_MB.all.mb58.gz 65.84MB Kongsberg multibeam vendor format
0045_20170811_074231_EX1707_MB.all.mb58.gz 66.15MB Kongsberg multibeam vendor format
0046_20170811_084235_EX1707_MB.all.mb58.gz 76.56MB Kongsberg multibeam vendor format
0047_20170811_094238_EX1707_MB.all.mb58.gz 70.64MB Kongsberg multibeam vendor format
0048_20170811_104237_EX1707_MB.all.mb58.gz 17.71MB Kongsberg multibeam vendor format
0049_20170811_105850_EX1707_MB.all.mb58.gz 7.18MB Kongsberg multibeam vendor format
0050_20170811_110520_EX1707_MB.all.mb58.gz 65.37MB Kongsberg multibeam vendor format
0051_20170811_120505_EX1707_MB.all.mb58.gz 66.45MB Kongsberg multibeam vendor format
0052_20170811_130513_EX1707_MB.all.mb58.gz 61.69MB Kongsberg multibeam vendor format
0053_20170811_140038_EX1707_MB.all.mb58.gz 8.35MB Kongsberg multibeam vendor format
0054_20170811_140812_EX1707_MB.all.mb58.gz 65.65MB Kongsberg multibeam vendor format
0055_20170811_150814_EX1707_MB.all.mb58.gz 5.74MB Kongsberg multibeam vendor format
0056_20170811_151328_EX1707_MB.all.mb58.gz 3.39MB Kongsberg multibeam vendor format
0057_20170811_151632_EX1707_MB.all.mb58.gz 66.29MB Kongsberg multibeam vendor format
0058_20170811_161636_EX1707_MB.all.mb58.gz 66.65MB Kongsberg multibeam vendor format
0059_20170811_171636_EX1707_MB.all.mb58.gz 65.84MB Kongsberg multibeam vendor format
0060_20170811_181641_EX1707_MB.all.mb58.gz 62.75MB Kongsberg multibeam vendor format
0061_20170811_191352_EX1707_MB.all.mb58.gz 65.56MB Kongsberg multibeam vendor format
0062_20170811_201356_EX1707_MB.all.mb58.gz 64.94MB Kongsberg multibeam vendor format
0063_20170811_211355_EX1707_MB.all.mb58.gz 64.96MB Kongsberg multibeam vendor format
0064_20170811_221352_EX1707_MB.all.mb58.gz 8.88MB Kongsberg multibeam vendor format
0065_20170811_222203_EX1707_MB.all.mb58.gz 65.02MB Kongsberg multibeam vendor format
0066_20170811_232201_EX1707_MB.all.mb58.gz 65.04MB Kongsberg multibeam vendor format
0067_20170812_002153_EX1707_MB.all.mb58.gz 62.48MB Kongsberg multibeam vendor format
0068_20170812_011926_EX1707_MB.all.mb58.gz 65.18MB Kongsberg multibeam vendor format
0069_20170812_021922_EX1707_MB.all.mb58.gz 65.18MB Kongsberg multibeam vendor format
0070_20170812_031927_EX1707_MB.all.mb58.gz 64.72MB Kongsberg multibeam vendor format
0071_20170812_041924_EX1707_MB.all.mb58.gz 64.98MB Kongsberg multibeam vendor format
0072_20170812_051928_EX1707_MB.all.mb58.gz 64.67MB Kongsberg multibeam vendor format
0073_20170812_061922_EX1707_MB.all.mb58.gz 64.79MB Kongsberg multibeam vendor format
0074_20170812_071924_EX1707_MB.all.mb58.gz 64.70MB Kongsberg multibeam vendor format
0075_20170812_081921_EX1707_MB.all.mb58.gz 64.90MB Kongsberg multibeam vendor format
0076_20170812_091930_EX1707_MB.all.mb58.gz 65.18MB Kongsberg multibeam vendor format
0077_20170812_101927_EX1707_MB.all.mb58.gz 52.37MB Kongsberg multibeam vendor format
0078_20170812_110742_EX1707_MB.all.mb58.gz 25.41MB Kongsberg multibeam vendor format
0079_20170812_113103_EX1707_MB.all.mb58.gz 65.21MB Kongsberg multibeam vendor format
0080_20170812_123104_EX1707_MB.all.mb58.gz 65.12MB Kongsberg multibeam vendor format
0081_20170812_133105_EX1707_MB.all.mb58.gz 65.40MB Kongsberg multibeam vendor format
0082_20170812_143108_EX1707_MB.all.mb58.gz 65.18MB Kongsberg multibeam vendor format
0083_20170812_153102_EX1707_MB.all.mb58.gz 65.21MB Kongsberg multibeam vendor format
0084_20170812_163101_EX1707_MB.all.mb58.gz 65.30MB Kongsberg multibeam vendor format
0085_20170812_173102_EX1707_MB.all.mb58.gz 65.44MB Kongsberg multibeam vendor format
0086_20170812_183110_EX1707_MB.all.mb58.gz 65.17MB Kongsberg multibeam vendor format
0087_20170812_193110_EX1707_MB.all.mb58.gz 65.23MB Kongsberg multibeam vendor format
0088_20170812_203103_EX1707_MB.all.mb58.gz 65.45MB Kongsberg multibeam vendor format
0089_20170812_213108_EX1707_MB.all.mb58.gz 65.49MB Kongsberg multibeam vendor format
0090_20170812_223107_EX1707_MB.all.mb58.gz 17.39MB Kongsberg multibeam vendor format
0091_20170812_224702_EX1707_MB.all.mb58.gz 31.04MB Kongsberg multibeam vendor format
0092_20170812_231532_EX1707_MB.all.mb58.gz 28.43MB Kongsberg multibeam vendor format
0093_20170812_234139_EX1707_MB.all.mb58.gz 65.50MB Kongsberg multibeam vendor format
0094_20170813_004138_EX1707_MB.all.mb58.gz 65.63MB Kongsberg multibeam vendor format
0095_20170813_014137_EX1707_MB.all.mb58.gz 65.26MB Kongsberg multibeam vendor format
0096_20170813_024133_EX1707_MB.all.mb58.gz 65.52MB Kongsberg multibeam vendor format
0097_20170813_034140_EX1707_MB.all.mb58.gz 64.94MB Kongsberg multibeam vendor format
0098_20170813_044133_EX1707_MB.all.mb58.gz 65.23MB Kongsberg multibeam vendor format
0099_20170813_054137_EX1707_MB.all.mb58.gz 65.40MB Kongsberg multibeam vendor format
0100_20170813_064133_EX1707_MB.all.mb58.gz 65.14MB Kongsberg multibeam vendor format
0101_20170813_074135_EX1707_MB.all.mb58.gz 65.10MB Kongsberg multibeam vendor format
0102_20170813_084130_EX1707_MB.all.mb58.gz 65.64MB Kongsberg multibeam vendor format
0103_20170813_094138_EX1707_MB.all.mb58.gz 65.47MB Kongsberg multibeam vendor format
0104_20170813_104134_EX1707_MB.all.mb58.gz 65.28MB Kongsberg multibeam vendor format
0105_20170813_114134_EX1707_MB.all.mb58.gz 19.52MB Kongsberg multibeam vendor format
0106_20170813_115938_EX1707_MB.all.mb58.gz 26.52MB Kongsberg multibeam vendor format
0107_20170813_122404_EX1707_MB.all.mb58.gz 65.29MB Kongsberg multibeam vendor format
0108_20170813_132403_EX1707_MB.all.mb58.gz 65.46MB Kongsberg multibeam vendor format
0109_20170813_142406_EX1707_MB.all.mb58.gz 65.16MB Kongsberg multibeam vendor format
0110_20170813_152402_EX1707_MB.all.mb58.gz 65.18MB Kongsberg multibeam vendor format
0111_20170813_162410_EX1707_MB.all.mb58.gz 65.15MB Kongsberg multibeam vendor format
0112_20170813_172406_EX1707_MB.all.mb58.gz 65.43MB Kongsberg multibeam vendor format
0113_20170813_182404_EX1707_MB.all.mb58.gz 65.25MB Kongsberg multibeam vendor format
0114_20170813_192411_EX1707_MB.all.mb58.gz 64.94MB Kongsberg multibeam vendor format
0115_20170813_202403_EX1707_MB.all.mb58.gz 65.43MB Kongsberg multibeam vendor format
0116_20170813_212408_EX1707_MB.all.mb58.gz 61.95MB Kongsberg multibeam vendor format
0117_20170813_222059_EX1707_MB.all.mb58.gz 65.33MB Kongsberg multibeam vendor format
0118_20170813_232045_EX1707_MB.all.mb58.gz 57.32MB Kongsberg multibeam vendor format
0119_20170814_001315_EX1707_MB.all.mb58.gz 28.03MB Kongsberg multibeam vendor format
0120_20170814_003859_EX1707_MB.all.mb58.gz 65.54MB Kongsberg multibeam vendor format
0121_20170814_013900_EX1707_MB.all.mb58.gz 65.56MB Kongsberg multibeam vendor format
0122_20170814_023858_EX1707_MB.all.mb58.gz 65.38MB Kongsberg multibeam vendor format
0123_20170814_033854_EX1707_MB.all.mb58.gz 65.49MB Kongsberg multibeam vendor format
0124_20170814_043902_EX1707_MB.all.mb58.gz 64.61MB Kongsberg multibeam vendor format
0125_20170814_053855_EX1707_MB.all.mb58.gz 65.07MB Kongsberg multibeam vendor format
0126_20170814_063854_EX1707_MB.all.mb58.gz 65.48MB Kongsberg multibeam vendor format
0127_20170814_073852_EX1707_MB.all.mb58.gz 65.26MB Kongsberg multibeam vendor format
0128_20170814_083854_EX1707_MB.all.mb58.gz 65.33MB Kongsberg multibeam vendor format
0129_20170814_093858_EX1707_MB.all.mb58.gz 65.28MB Kongsberg multibeam vendor format
0130_20170814_103852_EX1707_MB.all.mb58.gz 65.35MB Kongsberg multibeam vendor format
0131_20170814_113900_EX1707_MB.all.mb58.gz 65.13MB Kongsberg multibeam vendor format
0132_20170814_123855_EX1707_MB.all.mb58.gz 6.48MB Kongsberg multibeam vendor format
0133_20170814_124452_EX1707_MB.all.mb58.gz 26.69MB Kongsberg multibeam vendor format
0134_20170814_130931_EX1707_MB.all.mb58.gz 65.12MB Kongsberg multibeam vendor format
0135_20170814_140934_EX1707_MB.all.mb58.gz 65.20MB Kongsberg multibeam vendor format
0136_20170814_150928_EX1707_MB.all.mb58.gz 65.25MB Kongsberg multibeam vendor format
0137_20170814_160928_EX1707_MB.all.mb58.gz 65.31MB Kongsberg multibeam vendor format
0138_20170814_170928_EX1707_MB.all.mb58.gz 65.38MB Kongsberg multibeam vendor format
0139_20170814_180935_EX1707_MB.all.mb58.gz 65.42MB Kongsberg multibeam vendor format
0140_20170814_190927_EX1707_MB.all.mb58.gz 65.55MB Kongsberg multibeam vendor format
0141_20170814_200933_EX1707_MB.all.mb58.gz 65.24MB Kongsberg multibeam vendor format
0142_20170814_210936_EX1707_MB.all.mb58.gz 65.40MB Kongsberg multibeam vendor format
0143_20170814_220933_EX1707_MB.all.mb58.gz 34.62MB Kongsberg multibeam vendor format
0144_20170814_224115_EX1707_MB.all.mb58.gz 65.36MB Kongsberg multibeam vendor format
0145_20170814_234108_EX1707_MB.all.mb58.gz 65.52MB Kongsberg multibeam vendor format
0146_20170815_004113_EX1707_MB.all.mb58.gz 28.20MB Kongsberg multibeam vendor format
0147_20170815_010702_EX1707_MB.all.mb58.gz 26.01MB Kongsberg multibeam vendor format
0148_20170815_013119_EX1707_MB.all.mb58.gz 64.96MB Kongsberg multibeam vendor format
0149_20170815_023110_EX1707_MB.all.mb58.gz 65.24MB Kongsberg multibeam vendor format
0150_20170815_033115_EX1707_MB.all.mb58.gz 64.94MB Kongsberg multibeam vendor format
0151_20170815_043113_EX1707_MB.all.mb58.gz 64.93MB Kongsberg multibeam vendor format
0152_20170815_053112_EX1707_MB.all.mb58.gz 65.05MB Kongsberg multibeam vendor format
0153_20170815_063115_EX1707_MB.all.mb58.gz 64.90MB Kongsberg multibeam vendor format
0154_20170815_073120_EX1707_MB.all.mb58.gz 64.99MB Kongsberg multibeam vendor format
0155_20170815_083117_EX1707_MB.all.mb58.gz 64.74MB Kongsberg multibeam vendor format
0156_20170815_093120_EX1707_MB.all.mb58.gz 64.54MB Kongsberg multibeam vendor format
0157_20170815_103110_EX1707_MB.all.mb58.gz 64.69MB Kongsberg multibeam vendor format
0158_20170815_113110_EX1707_MB.all.mb58.gz 64.92MB Kongsberg multibeam vendor format
0159_20170815_123119_EX1707_MB.all.mb58.gz 53.70MB Kongsberg multibeam vendor format
0160_20170815_132105_EX1707_MB.all.mb58.gz 28.29MB Kongsberg multibeam vendor format
0161_20170815_134725_EX1707_MB.all.mb58.gz 64.55MB Kongsberg multibeam vendor format
0162_20170815_144718_EX1707_MB.all.mb58.gz 64.72MB Kongsberg multibeam vendor format
0163_20170815_154717_EX1707_MB.all.mb58.gz 64.71MB Kongsberg multibeam vendor format
0164_20170815_164723_EX1707_MB.all.mb58.gz 64.60MB Kongsberg multibeam vendor format
0165_20170815_174718_EX1707_MB.all.mb58.gz 64.67MB Kongsberg multibeam vendor format
0166_20170815_184717_EX1707_MB.all.mb58.gz 64.94MB Kongsberg multibeam vendor format
0167_20170815_194714_EX1707_MB.all.mb58.gz 64.85MB Kongsberg multibeam vendor format
0168_20170815_204718_EX1707_MB.all.mb58.gz 64.69MB Kongsberg multibeam vendor format
0169_20170815_214721_EX1707_MB.all.mb58.gz 64.74MB Kongsberg multibeam vendor format
0170_20170815_224717_EX1707_MB.all.mb58.gz 64.87MB Kongsberg multibeam vendor format
0171_20170815_234719_EX1707_MB.all.mb58.gz 64.88MB Kongsberg multibeam vendor format
0172_20170816_004715_EX1707_MB.all.mb58.gz 48.10MB Kongsberg multibeam vendor format
0173_20170816_013141_EX1707_MB.all.mb58.gz 24.81MB Kongsberg multibeam vendor format
0174_20170816_015439_EX1707_MB.all.mb58.gz 64.80MB Kongsberg multibeam vendor format
0175_20170816_025435_EX1707_MB.all.mb58.gz 65.11MB Kongsberg multibeam vendor format
0176_20170816_035442_EX1707_MB.all.mb58.gz 64.56MB Kongsberg multibeam vendor format
0177_20170816_045441_EX1707_MB.all.mb58.gz 64.78MB Kongsberg multibeam vendor format
0178_20170816_055441_EX1707_MB.all.mb58.gz 64.64MB Kongsberg multibeam vendor format
0179_20170816_065438_EX1707_MB.all.mb58.gz 64.69MB Kongsberg multibeam vendor format
0180_20170816_075433_EX1707_MB.all.mb58.gz 65.06MB Kongsberg multibeam vendor format
0181_20170816_085434_EX1707_MB.all.mb58.gz 64.80MB Kongsberg multibeam vendor format
0182_20170816_095438_EX1707_MB.all.mb58.gz 64.72MB Kongsberg multibeam vendor format
0183_20170816_105439_EX1707_MB.all.mb58.gz 64.61MB Kongsberg multibeam vendor format
0184_20170816_115440_EX1707_MB.all.mb58.gz 64.75MB Kongsberg multibeam vendor format
0185_20170816_125436_EX1707_MB.all.mb58.gz 52.94MB Kongsberg multibeam vendor format
0186_20170816_134344_EX1707_MB.all.mb58.gz 24.53MB Kongsberg multibeam vendor format
0187_20170816_140639_EX1707_MB.all.mb58.gz 64.98MB Kongsberg multibeam vendor format
0188_20170816_150641_EX1707_MB.all.mb58.gz 64.92MB Kongsberg multibeam vendor format
0189_20170816_160641_EX1707_MB.all.mb58.gz 64.95MB Kongsberg multibeam vendor format
0190_20170816_170646_EX1707_MB.all.mb58.gz 64.65MB Kongsberg multibeam vendor format
0191_20170816_180643_EX1707_MB.all.mb58.gz 64.65MB Kongsberg multibeam vendor format
0192_20170816_190638_EX1707_MB.all.mb58.gz 64.91MB Kongsberg multibeam vendor format
0193_20170816_200640_EX1707_MB.all.mb58.gz 64.75MB Kongsberg multibeam vendor format
0194_20170816_210645_EX1707_MB.all.mb58.gz 64.61MB Kongsberg multibeam vendor format
0195_20170816_220639_EX1707_MB.all.mb58.gz 64.81MB Kongsberg multibeam vendor format
0196_20170816_230642_EX1707_MB.all.mb58.gz 64.82MB Kongsberg multibeam vendor format
0197_20170817_000646_EX1707_MB.all.mb58.gz 63.52MB Kongsberg multibeam vendor format
0198_20170817_010525_EX1707_MB.all.mb58.gz 54.67MB Kongsberg multibeam vendor format
0199_20170817_015607_EX1707_MB.all.mb58.gz 23.81MB Kongsberg multibeam vendor format
0200_20170817_021810_EX1707_MB.all.mb58.gz 65.03MB Kongsberg multibeam vendor format
0201_20170817_031808_EX1707_MB.all.mb58.gz 64.99MB Kongsberg multibeam vendor format
0202_20170817_041809_EX1707_MB.all.mb58.gz 64.78MB Kongsberg multibeam vendor format
0203_20170817_051814_EX1707_MB.all.mb58.gz 64.78MB Kongsberg multibeam vendor format
0204_20170817_061808_EX1707_MB.all.mb58.gz 64.98MB Kongsberg multibeam vendor format
0205_20170817_071819_EX1707_MB.all.mb58.gz 64.78MB Kongsberg multibeam vendor format
0206_20170817_081816_EX1707_MB.all.mb58.gz 65.14MB Kongsberg multibeam vendor format
0207_20170817_091812_EX1707_MB.all.mb58.gz 64.72MB Kongsberg multibeam vendor format
0208_20170817_101810_EX1707_MB.all.mb58.gz 64.83MB Kongsberg multibeam vendor format
0209_20170817_111811_EX1707_MB.all.mb58.gz 64.59MB Kongsberg multibeam vendor format
0210_20170817_121813_EX1707_MB.all.mb58.gz 64.81MB Kongsberg multibeam vendor format
0211_20170817_131815_EX1707_MB.all.mb58.gz 58.79MB Kongsberg multibeam vendor format
0212_20170817_141247_EX1707_MB.all.mb58.gz 22.99MB Kongsberg multibeam vendor format
0213_20170817_143406_EX1707_MB.all.mb58.gz 64.69MB Kongsberg multibeam vendor format
0214_20170817_153406_EX1707_MB.all.mb58.gz 64.92MB Kongsberg multibeam vendor format
0215_20170817_163406_EX1707_MB.all.mb58.gz 64.48MB Kongsberg multibeam vendor format
0216_20170817_173400_EX1707_MB.all.mb58.gz 64.94MB Kongsberg multibeam vendor format
0217_20170817_183402_EX1707_MB.all.mb58.gz 64.87MB Kongsberg multibeam vendor format
0218_20170817_193408_EX1707_MB.all.mb58.gz 64.99MB Kongsberg multibeam vendor format
0219_20170817_203407_EX1707_MB.all.mb58.gz 64.38MB Kongsberg multibeam vendor format
0220_20170817_213402_EX1707_MB.all.mb58.gz 64.74MB Kongsberg multibeam vendor format
0221_20170817_223403_EX1707_MB.all.mb58.gz 65.06MB Kongsberg multibeam vendor format
0222_20170817_233407_EX1707_MB.all.mb58.gz 64.85MB Kongsberg multibeam vendor format
0223_20170818_003359_EX1707_MB.all.mb58.gz 64.97MB Kongsberg multibeam vendor format
0224_20170818_013404_EX1707_MB.all.mb58.gz 28.93MB Kongsberg multibeam vendor format
0225_20170818_020050_EX1707_MB.all.mb58.gz 29.99MB Kongsberg multibeam vendor format
0226_20170818_022832_EX1707_MB.all.mb58.gz 64.77MB Kongsberg multibeam vendor format
0227_20170818_032828_EX1707_MB.all.mb58.gz 64.80MB Kongsberg multibeam vendor format
0228_20170818_042828_EX1707_MB.all.mb58.gz 64.83MB Kongsberg multibeam vendor format
0229_20170818_052829_EX1707_MB.all.mb58.gz 65.06MB Kongsberg multibeam vendor format
0230_20170818_062837_EX1707_MB.all.mb58.gz 64.73MB Kongsberg multibeam vendor format
0231_20170818_072838_EX1707_MB.all.mb58.gz 64.68MB Kongsberg multibeam vendor format
0232_20170818_082835_EX1707_MB.all.mb58.gz 64.51MB Kongsberg multibeam vendor format
0233_20170818_092835_EX1707_MB.all.mb58.gz 64.80MB Kongsberg multibeam vendor format
0234_20170818_102834_EX1707_MB.all.mb58.gz 64.64MB Kongsberg multibeam vendor format
0235_20170818_112829_EX1707_MB.all.mb58.gz 64.83MB Kongsberg multibeam vendor format
0236_20170818_122838_EX1707_MB.all.mb58.gz 64.76MB Kongsberg multibeam vendor format
0237_20170818_132837_EX1707_MB.all.mb58.gz 45.46MB Kongsberg multibeam vendor format
0238_20170818_141047_EX1707_MB.all.mb58.gz 24.08MB Kongsberg multibeam vendor format
0239_20170818_143309_EX1707_MB.all.mb58.gz 64.85MB Kongsberg multibeam vendor format
0240_20170818_153312_EX1707_MB.all.mb58.gz 64.88MB Kongsberg multibeam vendor format
0241_20170818_163314_EX1707_MB.all.mb58.gz 64.82MB Kongsberg multibeam vendor format
0242_20170818_173315_EX1707_MB.all.mb58.gz 64.83MB Kongsberg multibeam vendor format
0243_20170818_183309_EX1707_MB.all.mb58.gz 64.68MB Kongsberg multibeam vendor format
0244_20170818_193313_EX1707_MB.all.mb58.gz 26.08MB Kongsberg multibeam vendor format
0245_20170818_195722_EX1707_MB.all.mb58.gz 22.52MB Kongsberg multibeam vendor format
0246_20170818_201811_EX1707_MB.all.mb58.gz 11.72MB Kongsberg multibeam vendor format
0247_20170818_202901_EX1707_MB.all.mb58.gz 21.46MB Kongsberg multibeam vendor format
0248_20170818_204851_EX1707_MB.all.mb58.gz 64.89MB Kongsberg multibeam vendor format
0249_20170818_214853_EX1707_MB.all.mb58.gz 64.52MB Kongsberg multibeam vendor format
0250_20170818_224853_EX1707_MB.all.mb58.gz 64.73MB Kongsberg multibeam vendor format
0251_20170818_234851_EX1707_MB.all.mb58.gz 64.82MB Kongsberg multibeam vendor format
0252_20170819_004852_EX1707_MB.all.mb58.gz 64.93MB Kongsberg multibeam vendor format
0253_20170819_014846_EX1707_MB.all.mb58.gz 64.91MB Kongsberg multibeam vendor format
0254_20170819_024846_EX1707_MB.all.mb58.gz 34.55MB Kongsberg multibeam vendor format
0255_20170819_032043_EX1707_MB.all.mb58.gz 22.62MB Kongsberg multibeam vendor format
0256_20170819_034146_EX1707_MB.all.mb58.gz 65.38MB Kongsberg multibeam vendor format
0257_20170819_044151_EX1707_MB.all.mb58.gz 64.98MB Kongsberg multibeam vendor format
0258_20170819_054147_EX1707_MB.all.mb58.gz 65.09MB Kongsberg multibeam vendor format
0259_20170819_064143_EX1707_MB.all.mb58.gz 65.34MB Kongsberg multibeam vendor format
0260_20170819_074150_EX1707_MB.all.mb58.gz 64.83MB Kongsberg multibeam vendor format
0261_20170819_084149_EX1707_MB.all.mb58.gz 64.79MB Kongsberg multibeam vendor format
0262_20170819_094150_EX1707_MB.all.mb58.gz 65.00MB Kongsberg multibeam vendor format
0263_20170819_104148_EX1707_MB.all.mb58.gz 64.71MB Kongsberg multibeam vendor format
0264_20170819_114148_EX1707_MB.all.mb58.gz 64.79MB Kongsberg multibeam vendor format
0265_20170819_124151_EX1707_MB.all.mb58.gz 64.65MB Kongsberg multibeam vendor format
0266_20170819_134145_EX1707_MB.all.mb58.gz 65.04MB Kongsberg multibeam vendor format
0267_20170819_144143_EX1707_MB.all.mb58.gz 56.28MB Kongsberg multibeam vendor format
0268_20170819_153326_EX1707_MB.all.mb58.gz 18.47MB Kongsberg multibeam vendor format
0269_20170819_155025_EX1707_MB.all.mb58.gz 65.18MB Kongsberg multibeam vendor format
0270_20170819_165022_EX1707_MB.all.mb58.gz 64.93MB Kongsberg multibeam vendor format
0271_20170819_175025_EX1707_MB.all.mb58.gz 64.76MB Kongsberg multibeam vendor format
0272_20170819_185025_EX1707_MB.all.mb58.gz 64.86MB Kongsberg multibeam vendor format
0273_20170819_195020_EX1707_MB.all.mb58.gz 27.61MB Kongsberg multibeam vendor format
0274_20170819_201552_EX1707_MB.all.mb58.gz 64.76MB Kongsberg multibeam vendor format
0275_20170819_211545_EX1707_MB.all.mb58.gz 44.00MB Kongsberg multibeam vendor format
0276_20170819_215619_EX1707_MB.all.mb58.gz 51.54MB Kongsberg multibeam vendor format
0277_20170819_224402_EX1707_MB.all.mb58.gz 64.92MB Kongsberg multibeam vendor format
0278_20170819_234405_EX1707_MB.all.mb58.gz 65.02MB Kongsberg multibeam vendor format
0279_20170820_004407_EX1707_MB.all.mb58.gz 40.95MB Kongsberg multibeam vendor format
0280_20170820_012200_EX1707_MB.all.mb58.gz 45.02MB Kongsberg multibeam vendor format
0281_20170820_020349_EX1707_MB.all.mb58.gz 64.81MB Kongsberg multibeam vendor format
0282_20170820_030342_EX1707_MB.all.mb58.gz 65.49MB Kongsberg multibeam vendor format
0283_20170820_040346_EX1707_MB.all.mb58.gz 65.15MB Kongsberg multibeam vendor format
0284_20170820_050344_EX1707_MB.all.mb58.gz 64.99MB Kongsberg multibeam vendor format
0285_20170820_060346_EX1707_MB.all.mb58.gz 64.80MB Kongsberg multibeam vendor format
0286_20170820_070346_EX1707_MB.all.mb58.gz 64.82MB Kongsberg multibeam vendor format
0287_20170820_080346_EX1707_MB.all.mb58.gz 64.90MB Kongsberg multibeam vendor format
0288_20170820_090351_EX1707_MB.all.mb58.gz 64.82MB Kongsberg multibeam vendor format
0289_20170820_100345_EX1707_MB.all.mb58.gz 64.91MB Kongsberg multibeam vendor format
0290_20170820_110345_EX1707_MB.all.mb58.gz 57.56MB Kongsberg multibeam vendor format
0291_20170820_115655_EX1707_MB.all.mb58.gz 69.11MB Kongsberg multibeam vendor format
0292_20170820_125651_EX1707_MB.all.mb58.gz 71.09MB Kongsberg multibeam vendor format
0293_20170820_135649_EX1707_MB.all.mb58.gz 65.45MB Kongsberg multibeam vendor format
0294_20170820_145649_EX1707_MB.all.mb58.gz 71.16MB Kongsberg multibeam vendor format
0295_20170820_155655_EX1707_MB.all.mb58.gz 48.26MB Kongsberg multibeam vendor format
0296_20170820_163534_EX1707_MB.all.mb58.gz 65.08MB Kongsberg multibeam vendor format
0297_20170820_173523_EX1707_MB.all.mb58.gz 66.78MB Kongsberg multibeam vendor format
0298_20170820_183524_EX1707_MB.all.mb58.gz 70.92MB Kongsberg multibeam vendor format
0299_20170820_193532_EX1707_MB.all.mb58.gz 7.04MB Kongsberg multibeam vendor format
0300_20170820_194202_EX1707_MB.all.mb58.gz 64.93MB Kongsberg multibeam vendor format
0301_20170820_204158_EX1707_MB.all.mb58.gz 64.94MB Kongsberg multibeam vendor format
0302_20170820_214157_EX1707_MB.all.mb58.gz 43.84MB Kongsberg multibeam vendor format
0303_20170820_222223_EX1707_MB.all.mb58.gz 64.70MB Kongsberg multibeam vendor format
0304_20170820_232204_EX1707_MB.all.mb58.gz 27.82MB Kongsberg multibeam vendor format
0305_20170820_234735_EX1707_MB.all.mb58.gz 68.18MB Kongsberg multibeam vendor format
0306_20170821_004735_EX1707_MB.all.mb58.gz 65.44MB Kongsberg multibeam vendor format
0307_20170821_014734_EX1707_MB.all.mb58.gz 9.77MB Kongsberg multibeam vendor format
0308_20170821_015631_EX1707_MB.all.mb58.gz 24.32MB Kongsberg multibeam vendor format
0309_20170821_021848_EX1707_MB.all.mb58.gz 72.68MB Kongsberg multibeam vendor format
0310_20170821_031843_EX1707_MB.all.mb58.gz 38.14MB Kongsberg multibeam vendor format
0311_20170821_034751_EX1707_MB.all.mb58.gz 20.67MB Kongsberg multibeam vendor format
0312_20170821_040334_EX1707_MB.all.mb58.gz 8.18MB Kongsberg multibeam vendor format
0313_20170821_040943_EX1707_MB.all.mb58.gz 30.59MB Kongsberg multibeam vendor format
0314_20170821_043246_EX1707_MB.all.mb58.gz 29.55MB Kongsberg multibeam vendor format
0315_20170821_045631_EX1707_MB.all.mb58.gz 72.37MB Kongsberg multibeam vendor format
0316_20170821_055633_EX1707_MB.all.mb58.gz 68.63MB Kongsberg multibeam vendor format
0317_20170821_065624_EX1707_MB.all.mb58.gz 12.61MB Kongsberg multibeam vendor format
0318_20170821_070755_EX1707_MB.all.mb58.gz 35.22MB Kongsberg multibeam vendor format
0319_20170821_074027_EX1707_MB.all.mb58.gz 64.86MB Kongsberg multibeam vendor format
0320_20170821_084027_EX1707_MB.all.mb58.gz 64.87MB Kongsberg multibeam vendor format
0321_20170821_094033_EX1707_MB.all.mb58.gz 64.67MB Kongsberg multibeam vendor format
0322_20170821_104024_EX1707_MB.all.mb58.gz 65.41MB Kongsberg multibeam vendor format
0323_20170821_114033_EX1707_MB.all.mb58.gz 65.13MB Kongsberg multibeam vendor format
0324_20170821_124028_EX1707_MB.all.mb58.gz 65.28MB Kongsberg multibeam vendor format
0325_20170821_134030_EX1707_MB.all.mb58.gz 65.12MB Kongsberg multibeam vendor format
0326_20170821_144023_EX1707_MB.all.mb58.gz 64.85MB Kongsberg multibeam vendor format
0327_20170821_154029_EX1707_MB.all.mb58.gz 37.91MB Kongsberg multibeam vendor format
0328_20170821_161534_EX1707_MB.all.mb58.gz 69.99MB Kongsberg multibeam vendor format
0329_20170821_171533_EX1707_MB.all.mb58.gz 29.17MB Kongsberg multibeam vendor format
0330_20170821_174206_EX1707_MB.all.mb58.gz 23.59MB Kongsberg multibeam vendor format
0331_20170821_180327_EX1707_MB.all.mb58.gz 66.46MB Kongsberg multibeam vendor format
0332_20170821_190322_EX1707_MB.all.mb58.gz 13.47MB Kongsberg multibeam vendor format
0333_20170821_191536_EX1707_MB.all.mb58.gz 20.30MB Kongsberg multibeam vendor format
0334_20170821_193418_EX1707_MB.all.mb58.gz 65.50MB Kongsberg multibeam vendor format
0335_20170821_203417_EX1707_MB.all.mb58.gz 32.16MB Kongsberg multibeam vendor format
0335_20170821_210638_EX1707_MB.all.mb58.gz 2.03MB Kongsberg multibeam vendor format
0336_20170821_210811_EX1707_MB.all.mb58.gz 50.74MB Kongsberg multibeam vendor format
0337_20170821_214744_EX1707_MB.all.mb58.gz 64.96MB Kongsberg multibeam vendor format
0338_20170821_224735_EX1707_MB.all.mb58.gz 0.84MB Kongsberg multibeam vendor format
0339_20170821_224821_EX1707_MB.all.mb58.gz 64.51MB Kongsberg multibeam vendor format
0340_20170821_234808_EX1707_MB.all.mb58.gz 65.21MB Kongsberg multibeam vendor format
0341_20170822_004809_EX1707_MB.all.mb58.gz 5.75MB Kongsberg multibeam vendor format
0342_20170822_005326_EX1707_MB.all.mb58.gz 10.14MB Kongsberg multibeam vendor format
0343_20170822_010245_EX1707_MB.all.mb58.gz 61.06MB Kongsberg multibeam vendor format
0344_20170822_015857_EX1707_MB.all.mb58.gz 65.13MB Kongsberg multibeam vendor format
0345_20170822_025849_EX1707_MB.all.mb58.gz 65.95MB Kongsberg multibeam vendor format
0346_20170822_035854_EX1707_MB.all.mb58.gz 65.92MB Kongsberg multibeam vendor format
0347_20170822_045850_EX1707_MB.all.mb58.gz 66.05MB Kongsberg multibeam vendor format
0348_20170822_055849_EX1707_MB.all.mb58.gz 30.79MB Kongsberg multibeam vendor format
0349_20170822_062645_EX1707_MB.all.mb58.gz 78.13MB Kongsberg multibeam vendor format
0350_20170822_072637_EX1707_MB.all.mb58.gz 69.02MB Kongsberg multibeam vendor format
0351_20170822_082646_EX1707_MB.all.mb58.gz 66.47MB Kongsberg multibeam vendor format
0352_20170822_092645_EX1707_MB.all.mb58.gz 66.47MB Kongsberg multibeam vendor format
0353_20170822_102639_EX1707_MB.all.mb58.gz 11.89MB Kongsberg multibeam vendor format
0354_20170822_103720_EX1707_MB.all.mb58.gz 66.61MB Kongsberg multibeam vendor format
0355_20170822_113723_EX1707_MB.all.mb58.gz 66.25MB Kongsberg multibeam vendor format
0356_20170822_123720_EX1707_MB.all.mb58.gz 66.88MB Kongsberg multibeam vendor format
0357_20170822_133729_EX1707_MB.all.mb58.gz 66.56MB Kongsberg multibeam vendor format
0358_20170822_143725_EX1707_MB.all.mb58.gz 66.59MB Kongsberg multibeam vendor format
0359_20170822_153725_EX1707_MB.all.mb58.gz 50.81MB Kongsberg multibeam vendor format
0360_20170822_162324_EX1707_MB.all.mb58.gz 29.03MB Kongsberg multibeam vendor format
0361_20170822_164941_EX1707_MB.all.mb58.gz 66.77MB Kongsberg multibeam vendor format
0362_20170822_174936_EX1707_MB.all.mb58.gz 67.04MB Kongsberg multibeam vendor format
0363_20170822_184940_EX1707_MB.all.mb58.gz 67.43MB Kongsberg multibeam vendor format
0364_20170822_194943_EX1707_MB.all.mb58.gz 76.90MB Kongsberg multibeam vendor format
0365_20170822_204940_EX1707_MB.all.mb58.gz 16.70MB Kongsberg multibeam vendor format
0366_20170822_210252_EX1707_MB.all.mb58.gz 44.40MB Kongsberg multibeam vendor format
0367_20170822_214301_EX1707_MB.all.mb58.gz 30.35MB Kongsberg multibeam vendor format
0368_20170822_221037_EX1707_MB.all.mb58.gz 27.66MB Kongsberg multibeam vendor format
0369_20170822_223546_EX1707_MB.all.mb58.gz 66.04MB Kongsberg multibeam vendor format
0370_20170822_233531_EX1707_MB.all.mb58.gz 66.39MB Kongsberg multibeam vendor format
0371_20170823_003532_EX1707_MB.all.mb58.gz 66.60MB Kongsberg multibeam vendor format
0372_20170823_013533_EX1707_MB.all.mb58.gz 65.65MB Kongsberg multibeam vendor format
0373_20170823_023538_EX1707_MB.all.mb58.gz 20.88MB Kongsberg multibeam vendor format
0374_20170823_025454_EX1707_MB.all.mb58.gz 64.96MB Kongsberg multibeam vendor format
0375_20170823_035458_EX1707_MB.all.mb58.gz 7.46MB Kongsberg multibeam vendor format
0376_20170823_040149_EX1707_MB.all.mb58.gz 64.89MB Kongsberg multibeam vendor format
0377_20170823_050151_EX1707_MB.all.mb58.gz 65.43MB Kongsberg multibeam vendor format
0378_20170823_060144_EX1707_MB.all.mb58.gz 66.25MB Kongsberg multibeam vendor format
0379_20170823_070145_EX1707_MB.all.mb58.gz 44.94MB Kongsberg multibeam vendor format
0380_20170823_074235_EX1707_MB.all.mb58.gz 45.96MB Kongsberg multibeam vendor format
0381_20170823_082422_EX1707_MB.all.mb58.gz 25.06MB Kongsberg multibeam vendor format
0382_20170823_084714_EX1707_MB.all.mb58.gz 22.67MB Kongsberg multibeam vendor format
0383_20170823_090747_EX1707_MB.all.mb58.gz 72.56MB Kongsberg multibeam vendor format
0384_20170823_100746_EX1707_MB.all.mb58.gz 66.12MB Kongsberg multibeam vendor format
0385_20170823_110749_EX1707_MB.all.mb58.gz 65.36MB Kongsberg multibeam vendor format
0386_20170823_120747_EX1707_MB.all.mb58.gz 4.72MB Kongsberg multibeam vendor format
0387_20170823_121206_EX1707_MB.all.mb58.gz 24.33MB Kongsberg multibeam vendor format
0388_20170823_123420_EX1707_MB.all.mb58.gz 65.90MB Kongsberg multibeam vendor format
0389_20170823_133422_EX1707_MB.all.mb58.gz 66.06MB Kongsberg multibeam vendor format
0390_20170823_143427_EX1707_MB.all.mb58.gz 74.31MB Kongsberg multibeam vendor format
0391_20170823_153425_EX1707_MB.all.mb58.gz 65.89MB Kongsberg multibeam vendor format
0392_20170823_163425_EX1707_MB.all.mb58.gz 65.89MB Kongsberg multibeam vendor format
0393_20170823_173421_EX1707_MB.all.mb58.gz 44.37MB Kongsberg multibeam vendor format
0394_20170823_181428_EX1707_MB.all.mb58.gz 78.34MB Kongsberg multibeam vendor format
0395_20170823_191434_EX1707_MB.all.mb58.gz 63.59MB Kongsberg multibeam vendor format
0396_20170823_200739_EX1707_MB.all.mb58.gz 38.24MB Kongsberg multibeam vendor format
0397_20170823_204237_EX1707_MB.all.mb58.gz 2.98MB Kongsberg multibeam vendor format
0398_20170823_204520_EX1707_MB.all.mb58.gz 23.22MB Kongsberg multibeam vendor format
0399_20170823_210621_EX1707_MB.all.mb58.gz 10.30MB Kongsberg multibeam vendor format
0400_20170823_211516_EX1707_MB.all.mb58.gz 77.98MB Kongsberg multibeam vendor format
0401_20170823_221518_EX1707_MB.all.mb58.gz 13.77MB Kongsberg multibeam vendor format
0402_20170823_222554_EX1707_MB.all.mb58.gz 77.50MB Kongsberg multibeam vendor format
0403_20170823_232558_EX1707_MB.all.mb58.gz 10.16MB Kongsberg multibeam vendor format
0404_20170823_233403_EX1707_MB.all.mb58.gz 65.68MB Kongsberg multibeam vendor format
0405_20170824_003356_EX1707_MB.all.mb58.gz 40.47MB Kongsberg multibeam vendor format
0406_20170824_011023_EX1707_MB.all.mb58.gz 76.80MB Kongsberg multibeam vendor format
0407_20170824_021013_EX1707_MB.all.mb58.gz 13.04MB Kongsberg multibeam vendor format
0408_20170824_022041_EX1707_MB.all.mb58.gz 4.39MB Kongsberg multibeam vendor format
0409_20170824_022438_EX1707_MB.all.mb58.gz 66.02MB Kongsberg multibeam vendor format
0410_20170824_032441_EX1707_MB.all.mb58.gz 46.16MB Kongsberg multibeam vendor format
0411_20170824_040631_EX1707_MB.all.mb58.gz 32.90MB Kongsberg multibeam vendor format
0412_20170824_043628_EX1707_MB.all.mb58.gz 65.81MB Kongsberg multibeam vendor format
0413_20170824_053633_EX1707_MB.all.mb58.gz 65.72MB Kongsberg multibeam vendor format
0414_20170824_063629_EX1707_MB.all.mb58.gz 67.08MB Kongsberg multibeam vendor format
0415_20170824_073627_EX1707_MB.all.mb58.gz 66.93MB Kongsberg multibeam vendor format
0416_20170824_083629_EX1707_MB.all.mb58.gz 66.33MB Kongsberg multibeam vendor format
0417_20170824_093638_EX1707_MB.all.mb58.gz 65.95MB Kongsberg multibeam vendor format
0418_20170824_103634_EX1707_MB.all.mb58.gz 72.58MB Kongsberg multibeam vendor format
0419_20170824_113628_EX1707_MB.all.mb58.gz 19.37MB Kongsberg multibeam vendor format
0420_20170824_115407_EX1707_MB.all.mb58.gz 27.95MB Kongsberg multibeam vendor format
0421_20170824_121939_EX1707_MB.all.mb58.gz 70.09MB Kongsberg multibeam vendor format
0422_20170824_131933_EX1707_MB.all.mb58.gz 66.26MB Kongsberg multibeam vendor format
0423_20170824_141935_EX1707_MB.all.mb58.gz 65.68MB Kongsberg multibeam vendor format
0424_20170824_151934_EX1707_MB.all.mb58.gz 70.78MB Kongsberg multibeam vendor format
0425_20170824_161935_EX1707_MB.all.mb58.gz 73.16MB Kongsberg multibeam vendor format
0426_20170824_171942_EX1707_MB.all.mb58.gz 42.32MB Kongsberg multibeam vendor format
0427_20170824_175828_EX1707_MB.all.mb58.gz 28.24MB Kongsberg multibeam vendor format
0428_20170824_182430_EX1707_MB.all.mb58.gz 65.28MB Kongsberg multibeam vendor format
0429_20170824_192429_EX1707_MB.all.mb58.gz 48.24MB Kongsberg multibeam vendor format
0430_20170824_200838_EX1707_MB.all.mb58.gz 45.36MB Kongsberg multibeam vendor format
0431_20170824_204410_EX1707_MB.all.mb58.gz 25.62MB Kongsberg multibeam vendor format
0432_20170824_210729_EX1707_MB.all.mb58.gz 25.68MB Kongsberg multibeam vendor format
0433_20170824_213059_EX1707_MB.all.mb58.gz 66.70MB Kongsberg multibeam vendor format
0434_20170824_223102_EX1707_MB.all.mb58.gz 20.26MB Kongsberg multibeam vendor format
0435_20170824_224933_EX1707_MB.all.mb58.gz 14.09MB Kongsberg multibeam vendor format
0436_20170824_230230_EX1707_MB.all.mb58.gz 27.89MB Kongsberg multibeam vendor format
0437_20170824_232817_EX1707_MB.all.mb58.gz 65.54MB Kongsberg multibeam vendor format
0438_20170825_002816_EX1707_MB.all.mb58.gz 28.55MB Kongsberg multibeam vendor format
0439_20170825_005414_EX1707_MB.all.mb58.gz 23.81MB Kongsberg multibeam vendor format
0440_20170825_011602_EX1707_MB.all.mb58.gz 65.61MB Kongsberg multibeam vendor format
0441_20170825_021602_EX1707_MB.all.mb58.gz 6.31MB Kongsberg multibeam vendor format
0442_20170825_022148_EX1707_MB.all.mb58.gz 2.34MB Kongsberg multibeam vendor format
0443_20170825_022357_EX1707_MB.all.mb58.gz 65.42MB Kongsberg multibeam vendor format
0444_20170825_032351_EX1707_MB.all.mb58.gz 67.80MB Kongsberg multibeam vendor format
0445_20170825_042356_EX1707_MB.all.mb58.gz 50.15MB Kongsberg multibeam vendor format
0446_20170825_050951_EX1707_MB.all.mb58.gz 65.05MB Kongsberg multibeam vendor format
0447_20170825_060947_EX1707_MB.all.mb58.gz 41.27MB Kongsberg multibeam vendor format
0448_20170825_064757_EX1707_MB.all.mb58.gz 23.36MB Kongsberg multibeam vendor format
0449_20170825_070929_EX1707_MB.all.mb58.gz 65.74MB Kongsberg multibeam vendor format
0450_20170825_080930_EX1707_MB.all.mb58.gz 65.72MB Kongsberg multibeam vendor format
0451_20170825_090935_EX1707_MB.all.mb58.gz 66.11MB Kongsberg multibeam vendor format
0452_20170825_100937_EX1707_MB.all.mb58.gz 66.24MB Kongsberg multibeam vendor format
0453_20170825_110939_EX1707_MB.all.mb58.gz 9.03MB Kongsberg multibeam vendor format
0454_20170825_111755_EX1707_MB.all.mb58.gz 24.18MB Kongsberg multibeam vendor format
0455_20170825_114014_EX1707_MB.all.mb58.gz 65.52MB Kongsberg multibeam vendor format
0456_20170825_124018_EX1707_MB.all.mb58.gz 65.49MB Kongsberg multibeam vendor format
0457_20170825_134016_EX1707_MB.all.mb58.gz 65.45MB Kongsberg multibeam vendor format
0458_20170825_144018_EX1707_MB.all.mb58.gz 65.49MB Kongsberg multibeam vendor format
0459_20170825_154012_EX1707_MB.all.mb58.gz 65.47MB Kongsberg multibeam vendor format
0460_20170825_164015_EX1707_MB.all.mb58.gz 65.85MB Kongsberg multibeam vendor format
0461_20170825_174013_EX1707_MB.all.mb58.gz 65.61MB Kongsberg multibeam vendor format
0462_20170825_184014_EX1707_MB.all.mb58.gz 65.04MB Kongsberg multibeam vendor format
0463_20170825_194016_EX1707_MB.all.mb58.gz 65.11MB Kongsberg multibeam vendor format
0464_20170825_204014_EX1707_MB.all.mb58.gz 14.75MB Kongsberg multibeam vendor format
0465_20170825_205349_EX1707_MB.all.mb58.gz 28.97MB Kongsberg multibeam vendor format
0466_20170825_212031_EX1707_MB.all.mb58.gz 65.55MB Kongsberg multibeam vendor format
0467_20170825_222028_EX1707_MB.all.mb58.gz 39.76MB Kongsberg multibeam vendor format
0468_20170825_225620_EX1707_MB.all.mb58.gz 17.02MB Kongsberg multibeam vendor format
0469_20170825_231144_EX1707_MB.all.mb58.gz 65.77MB Kongsberg multibeam vendor format
0470_20170826_001142_EX1707_MB.all.mb58.gz 65.78MB Kongsberg multibeam vendor format
0471_20170826_011149_EX1707_MB.all.mb58.gz 55.45MB Kongsberg multibeam vendor format
0472_20170826_020226_EX1707_MB.all.mb58.gz 6.45MB Kongsberg multibeam vendor format
0473_20170826_020820_EX1707_MB.all.mb58.gz 46.58MB Kongsberg multibeam vendor format
0474_20170826_025109_EX1707_MB.all.mb58.gz 22.68MB Kongsberg multibeam vendor format
0475_20170826_031158_EX1707_MB.all.mb58.gz 64.92MB Kongsberg multibeam vendor format
0476_20170826_041153_EX1707_MB.all.mb58.gz 50.02MB Kongsberg multibeam vendor format
0477_20170826_045758_EX1707_MB.all.mb58.gz 40.70MB Kongsberg multibeam vendor format
0478_20170826_053503_EX1707_MB.all.mb58.gz 15.12MB Kongsberg multibeam vendor format
0479_20170826_054858_EX1707_MB.all.mb58.gz 65.76MB Kongsberg multibeam vendor format
0480_20170826_064851_EX1707_MB.all.mb58.gz 62.46MB Kongsberg multibeam vendor format
0481_20170826_074602_EX1707_MB.all.mb58.gz 64.80MB Kongsberg multibeam vendor format
0482_20170826_084557_EX1707_MB.all.mb58.gz 65.00MB Kongsberg multibeam vendor format
0483_20170826_094557_EX1707_MB.all.mb58.gz 65.79MB Kongsberg multibeam vendor format
0484_20170826_104558_EX1707_MB.all.mb58.gz 65.60MB Kongsberg multibeam vendor format
0485_20170826_114557_EX1707_MB.all.mb58.gz 33.13MB Kongsberg multibeam vendor format
0486_20170826_121627_EX1707_MB.all.mb58.gz 29.72MB Kongsberg multibeam vendor format
0487_20170826_124343_EX1707_MB.all.mb58.gz 65.66MB Kongsberg multibeam vendor format
0488_20170826_134344_EX1707_MB.all.mb58.gz 43.17MB Kongsberg multibeam vendor format
0489_20170826_142314_EX1707_MB.all.mb58.gz 28.81MB Kongsberg multibeam vendor format
0490_20170826_144928_EX1707_MB.all.mb58.gz 74.27MB Kongsberg multibeam vendor format
0491_20170826_154928_EX1707_MB.all.mb58.gz 71.77MB Kongsberg multibeam vendor format
0492_20170826_164929_EX1707_MB.all.mb58.gz 66.01MB Kongsberg multibeam vendor format
0493_20170826_174933_EX1707_MB.all.mb58.gz 65.87MB Kongsberg multibeam vendor format
0494_20170826_184926_EX1707_MB.all.mb58.gz 8.64MB Kongsberg multibeam vendor format
0495_20170826_185716_EX1707_MB.all.mb58.gz 30.06MB Kongsberg multibeam vendor format
0496_20170826_192439_EX1707_MB.all.mb58.gz 53.59MB Kongsberg multibeam vendor format
0497_20170826_201316_EX1707_MB.all.mb58.gz 65.80MB Kongsberg multibeam vendor format
0498_20170826_211322_EX1707_MB.all.mb58.gz 65.74MB Kongsberg multibeam vendor format
0499_20170826_221319_EX1707_MB.all.mb58.gz 19.77MB Kongsberg multibeam vendor format
0500_20170826_223045_EX1707_MB.all.mb58.gz 12.08MB Kongsberg multibeam vendor format
0501_20170826_224000_EX1707_MB.all.mb58.gz 12.89MB Kongsberg multibeam vendor format
0502_20170826_224958_EX1707_MB.all.mb58.gz 31.13MB Kongsberg multibeam vendor format
0503_20170826_231754_EX1707_MB.all.mb58.gz 23.55MB Kongsberg multibeam vendor format
0504_20170826_233904_EX1707_MB.all.mb58.gz 8.85MB Kongsberg multibeam vendor format
0505_20170826_234701_EX1707_MB.all.mb58.gz 5.60MB Kongsberg multibeam vendor format
0506_20170826_235202_EX1707_MB.all.mb58.gz 23.20MB Kongsberg multibeam vendor format
0507_20170827_001252_EX1707_MB.all.mb58.gz 49.69MB Kongsberg multibeam vendor format
0508_20170827_005759_EX1707_MB.all.mb58.gz 65.53MB Kongsberg multibeam vendor format
0509_20170827_015755_EX1707_MB.all.mb58.gz 66.00MB Kongsberg multibeam vendor format
0510_20170827_025754_EX1707_MB.all.mb58.gz 65.93MB Kongsberg multibeam vendor format
0511_20170827_035800_EX1707_MB.all.mb58.gz 8.58MB Kongsberg multibeam vendor format
0512_20170827_040551_EX1707_MB.all.mb58.gz 33.37MB Kongsberg multibeam vendor format
0513_20170827_043627_EX1707_MB.all.mb58.gz 65.44MB Kongsberg multibeam vendor format
0514_20170827_053628_EX1707_MB.all.mb58.gz 65.89MB Kongsberg multibeam vendor format
0515_20170827_063630_EX1707_MB.all.mb58.gz 66.21MB Kongsberg multibeam vendor format
0516_20170827_073626_EX1707_MB.all.mb58.gz 65.59MB Kongsberg multibeam vendor format
0517_20170827_083629_EX1707_MB.all.mb58.gz 65.59MB Kongsberg multibeam vendor format
0518_20170827_093625_EX1707_MB.all.mb58.gz 65.44MB Kongsberg multibeam vendor format
0519_20170827_103621_EX1707_MB.all.mb58.gz 5.39MB Kongsberg multibeam vendor format
0520_20170827_104119_EX1707_MB.all.mb58.gz 30.15MB Kongsberg multibeam vendor format
0521_20170827_110900_EX1707_MB.all.mb58.gz 65.50MB Kongsberg multibeam vendor format
0522_20170827_120852_EX1707_MB.all.mb58.gz 20.39MB Kongsberg multibeam vendor format
0523_20170827_122729_EX1707_MB.all.mb58.gz 27.99MB Kongsberg multibeam vendor format
0524_20170827_125308_EX1707_MB.all.mb58.gz 69.99MB Kongsberg multibeam vendor format
0525_20170827_135308_EX1707_MB.all.mb58.gz 66.06MB Kongsberg multibeam vendor format
0526_20170827_145312_EX1707_MB.all.mb58.gz 50.24MB Kongsberg multibeam vendor format
0527_20170827_153834_EX1707_MB.all.mb58.gz 27.28MB Kongsberg multibeam vendor format
0528_20170827_160301_EX1707_MB.all.mb58.gz 2.93MB Kongsberg multibeam vendor format
0529_20170827_160537_EX1707_MB.all.mb58.gz 66.69MB Kongsberg multibeam vendor format
0530_20170827_170542_EX1707_MB.all.mb58.gz 65.40MB Kongsberg multibeam vendor format
0531_20170827_180533_EX1707_MB.all.mb58.gz 27.67MB Kongsberg multibeam vendor format
0532_20170827_183051_EX1707_MB.all.mb58.gz 32.93MB Kongsberg multibeam vendor format
0533_20170827_190106_EX1707_MB.all.mb58.gz 65.12MB Kongsberg multibeam vendor format
0534_20170827_200107_EX1707_MB.all.mb58.gz 48.46MB Kongsberg multibeam vendor format
0535_20170827_204539_EX1707_MB.all.mb58.gz 3.76MB Kongsberg multibeam vendor format
0536_20170827_204906_EX1707_MB.all.mb58.gz 37.40MB Kongsberg multibeam vendor format
0537_20170827_212348_EX1707_MB.all.mb58.gz 43.16MB Kongsberg multibeam vendor format
0538_20170827_220334_EX1707_MB.all.mb58.gz 66.03MB Kongsberg multibeam vendor format
0539_20170827_230330_EX1707_MB.all.mb58.gz 67.52MB Kongsberg multibeam vendor format
0540_20170828_000331_EX1707_MB.all.mb58.gz 13.91MB Kongsberg multibeam vendor format
0541_20170828_001546_EX1707_MB.all.mb58.gz 72.30MB Kongsberg multibeam vendor format
0542_20170828_010859_EX1707_MB.all.mb58.gz 13.15MB Kongsberg multibeam vendor format
0543_20170828_011838_EX1707_MB.all.mb58.gz 66.70MB Kongsberg multibeam vendor format
0544_20170828_021837_EX1707_MB.all.mb58.gz 65.22MB Kongsberg multibeam vendor format
0545_20170828_031827_EX1707_MB.all.mb58.gz 65.33MB Kongsberg multibeam vendor format
0546_20170828_041826_EX1707_MB.all.mb58.gz 65.13MB Kongsberg multibeam vendor format
0547_20170828_051820_EX1707_MB.all.mb58.gz 65.40MB Kongsberg multibeam vendor format
0548_20170828_061828_EX1707_MB.all.mb58.gz 65.20MB Kongsberg multibeam vendor format
0549_20170828_071823_EX1707_MB.all.mb58.gz 65.43MB Kongsberg multibeam vendor format
0550_20170828_081826_EX1707_MB.all.mb58.gz 65.38MB Kongsberg multibeam vendor format
0551_20170828_091827_EX1707_MB.all.mb58.gz 65.42MB Kongsberg multibeam vendor format
0552_20170828_101827_EX1707_MB.all.mb58.gz 65.27MB Kongsberg multibeam vendor format
0553_20170828_111823_EX1707_MB.all.mb58.gz 65.34MB Kongsberg multibeam vendor format
0554_20170828_121820_EX1707_MB.all.mb58.gz 65.56MB Kongsberg multibeam vendor format
0555_20170828_131823_EX1707_MB.all.mb58.gz 65.73MB Kongsberg multibeam vendor format
0556_20170828_141821_EX1707_MB.all.mb58.gz 10.67MB Kongsberg multibeam vendor format
0557_20170828_142805_EX1707_MB.all.mb58.gz 65.74MB Kongsberg multibeam vendor format
0558_20170828_152804_EX1707_MB.all.mb58.gz 15.52MB Kongsberg multibeam vendor format
0559_20170828_154214_EX1707_MB.all.mb58.gz 24.88MB Kongsberg multibeam vendor format
0560_20170828_160459_EX1707_MB.all.mb58.gz 75.71MB Kongsberg multibeam vendor format
0561_20170828_170458_EX1707_MB.all.mb58.gz 9.62MB Kongsberg multibeam vendor format
0562_20170828_171341_EX1707_MB.all.mb58.gz 4.84MB Kongsberg multibeam vendor format
0563_20170828_171804_EX1707_MB.all.mb58.gz 24.82MB Kongsberg multibeam vendor format
0564_20170828_174050_EX1707_MB.all.mb58.gz 35.18MB Kongsberg multibeam vendor format
0565_20170828_181258_EX1707_MB.all.mb58.gz 15.08MB Kongsberg multibeam vendor format
0566_20170828_182447_EX1707_MB.all.mb58.gz 44.03MB Kongsberg multibeam vendor format
0567_20170828_190443_EX1707_MB.all.mb58.gz 1.09MB Kongsberg multibeam vendor format
0568_20170828_190542_EX1707_MB.all.mb58.gz 65.13MB Kongsberg multibeam vendor format
0569_20170828_200547_EX1707_MB.all.mb58.gz 64.74MB Kongsberg multibeam vendor format
0570_20170828_210544_EX1707_MB.all.mb58.gz 64.78MB Kongsberg multibeam vendor format
0571_20170828_220541_EX1707_MB.all.mb58.gz 19.11MB Kongsberg multibeam vendor format
0572_20170828_222312_EX1707_MB.all.mb58.gz 17.63MB Kongsberg multibeam vendor format
0573_20170828_223914_EX1707_MB.all.mb58.gz 24.59MB Kongsberg multibeam vendor format
0574_20170828_230122_EX1707_MB.all.mb58.gz 3.33MB Kongsberg multibeam vendor format
0575_20170828_230419_EX1707_MB.all.mb58.gz 24.72MB Kongsberg multibeam vendor format
0576_20170828_232638_EX1707_MB.all.mb58.gz 14.22MB Kongsberg multibeam vendor format
0577_20170828_233743_EX1707_MB.all.mb58.gz 52.93MB Kongsberg multibeam vendor format
0578_20170829_002611_EX1707_MB.all.mb58.gz 64.91MB Kongsberg multibeam vendor format
0579_20170829_012610_EX1707_MB.all.mb58.gz 65.17MB Kongsberg multibeam vendor format
0580_20170829_022611_EX1707_MB.all.mb58.gz 65.30MB Kongsberg multibeam vendor format
0581_20170829_032611_EX1707_MB.all.mb58.gz 60.56MB Kongsberg multibeam vendor format
0582_20170829_042131_EX1707_MB.all.mb58.gz 39.53MB Kongsberg multibeam vendor format
0583_20170829_045212_EX1707_MB.all.mb58.gz 48.67MB Kongsberg multibeam vendor format
0584_20170829_053641_EX1707_MB.all.mb58.gz 65.37MB Kongsberg multibeam vendor format
0585_20170829_063638_EX1707_MB.all.mb58.gz 52.33MB Kongsberg multibeam vendor format
0586_20170829_072435_EX1707_MB.all.mb58.gz 47.44MB Kongsberg multibeam vendor format
0587_20170829_080737_EX1707_MB.all.mb58.gz 20.77MB Kongsberg multibeam vendor format
0588_20170829_082350_EX1707_MB.all.mb58.gz 21.82MB Kongsberg multibeam vendor format
0589_20170829_084346_EX1707_MB.all.mb58.gz 65.68MB Kongsberg multibeam vendor format
0590_20170829_094340_EX1707_MB.all.mb58.gz 28.74MB Kongsberg multibeam vendor format
0591_20170829_100946_EX1707_MB.all.mb58.gz 11.48MB Kongsberg multibeam vendor format
0592_20170829_102011_EX1707_MB.all.mb58.gz 74.05MB Kongsberg multibeam vendor format
0593_20170829_112005_EX1707_MB.all.mb58.gz 70.32MB Kongsberg multibeam vendor format
0594_20170829_122006_EX1707_MB.all.mb58.gz 29.81MB Kongsberg multibeam vendor format
0595_20170829_124328_EX1707_MB.all.mb58.gz 29.07MB Kongsberg multibeam vendor format
0596_20170829_130623_EX1707_MB.all.mb58.gz 77.40MB Kongsberg multibeam vendor format
0597_20170829_140630_EX1707_MB.all.mb58.gz 74.29MB Kongsberg multibeam vendor format
0598_20170829_150629_EX1707_MB.all.mb58.gz 24.71MB Kongsberg multibeam vendor format
0599_20170829_152553_EX1707_MB.all.mb58.gz 23.48MB Kongsberg multibeam vendor format
0600_20170829_154702_EX1707_MB.all.mb58.gz 77.50MB Kongsberg multibeam vendor format
0601_20170829_164702_EX1707_MB.all.mb58.gz 70.81MB Kongsberg multibeam vendor format
0602_20170829_174704_EX1707_MB.all.mb58.gz 38.50MB Kongsberg multibeam vendor format
0603_20170829_181731_EX1707_MB.all.mb58.gz 5.00MB Kongsberg multibeam vendor format
0604_20170829_182133_EX1707_MB.all.mb58.gz 35.17MB Kongsberg multibeam vendor format
0605_20170829_185357_EX1707_MB.all.mb58.gz 65.49MB Kongsberg multibeam vendor format
0606_20170829_195342_EX1707_MB.all.mb58.gz 9.43MB Kongsberg multibeam vendor format
0607_20170829_200215_EX1707_MB.all.mb58.gz 3.74MB Kongsberg multibeam vendor format
0608_20170829_200538_EX1707_MB.all.mb58.gz 66.17MB Kongsberg multibeam vendor format
0609_20170829_210541_EX1707_MB.all.mb58.gz 21.94MB Kongsberg multibeam vendor format
0610_20170829_212544_EX1707_MB.all.mb58.gz 46.79MB Kongsberg multibeam vendor format
0611_20170829_220845_EX1707_MB.all.mb58.gz 65.99MB Kongsberg multibeam vendor format
0612_20170829_230833_EX1707_MB.all.mb58.gz 66.13MB Kongsberg multibeam vendor format
0613_20170830_000836_EX1707_MB.all.mb58.gz 66.01MB Kongsberg multibeam vendor format
0614_20170830_010833_EX1707_MB.all.mb58.gz 29.10MB Kongsberg multibeam vendor format
0615_20170830_013455_EX1707_MB.all.mb58.gz 22.38MB Kongsberg multibeam vendor format
0616_20170830_015454_EX1707_MB.all.mb58.gz 67.07MB Kongsberg multibeam vendor format
0617_20170830_025455_EX1707_MB.all.mb58.gz 3.27MB Kongsberg multibeam vendor format
0618_20170830_025751_EX1707_MB.all.mb58.gz 16.85MB Kongsberg multibeam vendor format
0619_20170830_031252_EX1707_MB.all.mb58.gz 57.99MB Kongsberg multibeam vendor format
0620_20170830_035720_EX1707_MB.all.mb58.gz 66.43MB Kongsberg multibeam vendor format
0621_20170830_045724_EX1707_MB.all.mb58.gz 11.74MB Kongsberg multibeam vendor format
0622_20170830_050800_EX1707_MB.all.mb58.gz 19.16MB Kongsberg multibeam vendor format
0623_20170830_052522_EX1707_MB.all.mb58.gz 65.88MB Kongsberg multibeam vendor format
0624_20170830_062515_EX1707_MB.all.mb58.gz 15.22MB Kongsberg multibeam vendor format
0625_20170830_063904_EX1707_MB.all.mb58.gz 66.11MB Kongsberg multibeam vendor format
0626_20170830_073855_EX1707_MB.all.mb58.gz 66.18MB Kongsberg multibeam vendor format
0627_20170830_083856_EX1707_MB.all.mb58.gz 66.03MB Kongsberg multibeam vendor format
0628_20170830_093856_EX1707_MB.all.mb58.gz 66.11MB Kongsberg multibeam vendor format
0629_20170830_103854_EX1707_MB.all.mb58.gz 66.33MB Kongsberg multibeam vendor format
0630_20170830_113857_EX1707_MB.all.mb58.gz 66.48MB Kongsberg multibeam vendor format
0631_20170830_123901_EX1707_MB.all.mb58.gz 66.42MB Kongsberg multibeam vendor format
0632_20170830_133900_EX1707_MB.all.mb58.gz 66.30MB Kongsberg multibeam vendor format
0633_20170830_143855_EX1707_MB.all.mb58.gz 43.11MB Kongsberg multibeam vendor format
0634_20170830_151752_EX1707_MB.all.mb58.gz 66.60MB Kongsberg multibeam vendor format
0635_20170830_161757_EX1707_MB.all.mb58.gz 66.54MB Kongsberg multibeam vendor format
0636_20170830_171757_EX1707_MB.all.mb58.gz 66.31MB Kongsberg multibeam vendor format
0637_20170830_181753_EX1707_MB.all.mb58.gz 66.19MB Kongsberg multibeam vendor format
0638_20170830_191753_EX1707_MB.all.mb58.gz 66.35MB Kongsberg multibeam vendor format
0639_20170830_201756_EX1707_MB.all.mb58.gz 66.10MB Kongsberg multibeam vendor format
0640_20170830_211752_EX1707_MB.all.mb58.gz 66.32MB Kongsberg multibeam vendor format
0641_20170830_221756_EX1707_MB.all.mb58.gz 33.76MB Kongsberg multibeam vendor format
0642_20170830_224840_EX1707_MB.all.mb58.gz 66.61MB Kongsberg multibeam vendor format
0643_20170830_234824_EX1707_MB.all.mb58.gz 66.44MB Kongsberg multibeam vendor format
0644_20170831_004825_EX1707_MB.all.mb58.gz 66.31MB Kongsberg multibeam vendor format
0645_20170831_014825_EX1707_MB.all.mb58.gz 66.37MB Kongsberg multibeam vendor format
0646_20170831_024829_EX1707_MB.all.mb58.gz 20.38MB Kongsberg multibeam vendor format
0647_20170831_030644_EX1707_MB.all.mb58.gz 79.75MB Kongsberg multibeam vendor format
0648_20170831_040629_EX1707_MB.all.mb58.gz 83.83MB Kongsberg multibeam vendor format
0649_20170831_050633_EX1707_MB.all.mb58.gz 90.02MB Kongsberg multibeam vendor format
0650_20170831_060631_EX1707_MB.all.mb58.gz 86.83MB Kongsberg multibeam vendor format
0651_20170831_070635_EX1707_MB.all.mb58.gz 19.60MB Kongsberg multibeam vendor format
0652_20170831_072118_EX1707_MB.all.mb58.gz 79.74MB Kongsberg multibeam vendor format
0653_20170831_082115_EX1707_MB.all.mb58.gz 79.75MB Kongsberg multibeam vendor format
0654_20170831_092117_EX1707_MB.all.mb58.gz 78.17MB Kongsberg multibeam vendor format
0655_20170831_102118_EX1707_MB.all.mb58.gz 77.29MB Kongsberg multibeam vendor format
0656_20170831_112117_EX1707_MB.all.mb58.gz 56.84MB Kongsberg multibeam vendor format
0657_20170831_120914_EX1707_MB.all.mb58.gz 10.91MB Kongsberg multibeam vendor format
0658_20170831_121845_EX1707_MB.all.mb58.gz 78.63MB Kongsberg multibeam vendor format
0659_20170831_131843_EX1707_MB.all.mb58.gz 96.86MB Kongsberg multibeam vendor format
0660_20170831_141005_EX1707_MB.all.mb58.gz 161.50MB Kongsberg multibeam vendor format
0661_20170831_151004_EX1707_MB.all.mb58.gz 116.47MB Kongsberg multibeam vendor format

Full Resolution Bathymetry (processed): 663

Files File Size Description
0000_20170809_041835_EX1707_MB-EM302.gsf.mb121.gz 82.61MB SAIC Generic Sensor Format (GSF)
0001_20170809_044537_EX1707_MB-EM302.gsf.mb121.gz 90.33MB SAIC Generic Sensor Format (GSF)
0002_20170809_054537_EX1707_MB-EM302.gsf.mb121.gz 11.19MB SAIC Generic Sensor Format (GSF)
0003_20170809_194732_EX1707_MB-EM302.gsf.mb121.gz 28.99MB SAIC Generic Sensor Format (GSF)
0004_20170809_204735_EX1707_MB-EM302.gsf.mb121.gz 38.41MB SAIC Generic Sensor Format (GSF)
0005_20170809_214734_EX1707_MB-EM302.gsf.mb121.gz 38.52MB SAIC Generic Sensor Format (GSF)
0006_20170809_224726_EX1707_MB-EM302.gsf.mb121.gz 38.41MB SAIC Generic Sensor Format (GSF)
0007_20170809_234730_EX1707_MB-EM302.gsf.mb121.gz 38.60MB SAIC Generic Sensor Format (GSF)
0008_20170810_004721_EX1707_MB-EM302.gsf.mb121.gz 38.43MB SAIC Generic Sensor Format (GSF)
0009_20170810_014720_EX1707_MB-EM302.gsf.mb121.gz 39.24MB SAIC Generic Sensor Format (GSF)
0010_20170810_024719_EX1707_MB-EM302.gsf.mb121.gz 38.44MB SAIC Generic Sensor Format (GSF)
0011_20170810_034718_EX1707_MB-EM302.gsf.mb121.gz 38.39MB SAIC Generic Sensor Format (GSF)
0012_20170810_044719_EX1707_MB-EM302.gsf.mb121.gz 38.36MB SAIC Generic Sensor Format (GSF)
0013_20170810_054714_EX1707_MB-EM302.gsf.mb121.gz 38.43MB SAIC Generic Sensor Format (GSF)
0014_20170810_064714_EX1707_MB-EM302.gsf.mb121.gz 39.60MB SAIC Generic Sensor Format (GSF)
0015_20170810_074711_EX1707_MB-EM302.gsf.mb121.gz 38.59MB SAIC Generic Sensor Format (GSF)
0016_20170810_084711_EX1707_MB-EM302.gsf.mb121.gz 39.37MB SAIC Generic Sensor Format (GSF)
0017_20170810_094714_EX1707_MB-EM302.gsf.mb121.gz 38.35MB SAIC Generic Sensor Format (GSF)
0018_20170810_104715_EX1707_MB-EM302.gsf.mb121.gz 29.87MB SAIC Generic Sensor Format (GSF)
0019_20170810_114554_EX1707_MB-EM302.gsf.mb121.gz 21.16MB SAIC Generic Sensor Format (GSF)
0020_20170810_115158_EX1707_MB-EM302.gsf.mb121.gz 44.28MB SAIC Generic Sensor Format (GSF)
0021_20170810_125157_EX1707_MB-EM302.gsf.mb121.gz 57.15MB SAIC Generic Sensor Format (GSF)
0022_20170810_135202_EX1707_MB-EM302.gsf.mb121.gz 45.00MB SAIC Generic Sensor Format (GSF)
0023_20170810_145157_EX1707_MB-EM302.gsf.mb121.gz 23.35MB SAIC Generic Sensor Format (GSF)
0024_20170810_152015_EX1707_MB-EM302.gsf.mb121.gz 23.18MB SAIC Generic Sensor Format (GSF)
0025_20170810_154646_EX1707_MB-EM302.gsf.mb121.gz 34.40MB SAIC Generic Sensor Format (GSF)
0026_20170810_164645_EX1707_MB-EM302.gsf.mb121.gz 54.48MB SAIC Generic Sensor Format (GSF)
0027_20170810_174648_EX1707_MB-EM302.gsf.mb121.gz 43.48MB SAIC Generic Sensor Format (GSF)
0028_20170810_184650_EX1707_MB-EM302.gsf.mb121.gz 22.73MB SAIC Generic Sensor Format (GSF)
0029_20170810_190925_EX1707_MB-EM302.gsf.mb121.gz 6.90MB SAIC Generic Sensor Format (GSF)
0030_20170810_191351_EX1707_MB-EM302.gsf.mb121.gz 13.17MB SAIC Generic Sensor Format (GSF)
0031_20170810_191847_EX1707_MB-EM302.gsf.mb121.gz 39.79MB SAIC Generic Sensor Format (GSF)
0032_20170810_201847_EX1707_MB-EM302.gsf.mb121.gz 37.99MB SAIC Generic Sensor Format (GSF)
0033_20170810_211849_EX1707_MB-EM302.gsf.mb121.gz 29.11MB SAIC Generic Sensor Format (GSF)
0034_20170810_221853_EX1707_MB-EM302.gsf.mb121.gz 21.02MB SAIC Generic Sensor Format (GSF)
0035_20170810_222439_EX1707_MB-EM302.gsf.mb121.gz 27.60MB SAIC Generic Sensor Format (GSF)
0036_20170810_232435_EX1707_MB-EM302.gsf.mb121.gz 31.88MB SAIC Generic Sensor Format (GSF)
0037_20170811_001413_EX1707_MB-EM302.gsf.mb121.gz 38.21MB SAIC Generic Sensor Format (GSF)
0038_20170811_005045_EX1707_MB-EM302.gsf.mb121.gz 31.85MB SAIC Generic Sensor Format (GSF)
0039_20170811_014238_EX1707_MB-EM302.gsf.mb121.gz 35.97MB SAIC Generic Sensor Format (GSF)
0040_20170811_024235_EX1707_MB-EM302.gsf.mb121.gz 41.86MB SAIC Generic Sensor Format (GSF)
0041_20170811_034232_EX1707_MB-EM302.gsf.mb121.gz 38.62MB SAIC Generic Sensor Format (GSF)
0042_20170811_044237_EX1707_MB-EM302.gsf.mb121.gz 39.26MB SAIC Generic Sensor Format (GSF)
0043_20170811_054229_EX1707_MB-EM302.gsf.mb121.gz 39.24MB SAIC Generic Sensor Format (GSF)
0044_20170811_064235_EX1707_MB-EM302.gsf.mb121.gz 39.14MB SAIC Generic Sensor Format (GSF)
0045_20170811_074231_EX1707_MB-EM302.gsf.mb121.gz 39.40MB SAIC Generic Sensor Format (GSF)
0046_20170811_084235_EX1707_MB-EM302.gsf.mb121.gz 53.78MB SAIC Generic Sensor Format (GSF)
0047_20170811_094238_EX1707_MB-EM302.gsf.mb121.gz 38.46MB SAIC Generic Sensor Format (GSF)
0048_20170811_104237_EX1707_MB-EM302.gsf.mb121.gz 15.85MB SAIC Generic Sensor Format (GSF)
0049_20170811_105850_EX1707_MB-EM302.gsf.mb121.gz 14.33MB SAIC Generic Sensor Format (GSF)
0050_20170811_110520_EX1707_MB-EM302.gsf.mb121.gz 30.21MB SAIC Generic Sensor Format (GSF)
0051_20170811_120505_EX1707_MB-EM302.gsf.mb121.gz 39.27MB SAIC Generic Sensor Format (GSF)
0052_20170811_130513_EX1707_MB-EM302.gsf.mb121.gz 30.76MB SAIC Generic Sensor Format (GSF)
0053_20170811_140038_EX1707_MB-EM302.gsf.mb121.gz 21.06MB SAIC Generic Sensor Format (GSF)
0054_20170811_140812_EX1707_MB-EM302.gsf.mb121.gz 21.53MB SAIC Generic Sensor Format (GSF)
0055_20170811_150814_EX1707_MB-EM302.gsf.mb121.gz 11.77MB SAIC Generic Sensor Format (GSF)
0056_20170811_151328_EX1707_MB-EM302.gsf.mb121.gz 11.45MB SAIC Generic Sensor Format (GSF)
0057_20170811_151632_EX1707_MB-EM302.gsf.mb121.gz 30.46MB SAIC Generic Sensor Format (GSF)
0058_20170811_161636_EX1707_MB-EM302.gsf.mb121.gz 40.69MB SAIC Generic Sensor Format (GSF)
0059_20170811_171636_EX1707_MB-EM302.gsf.mb121.gz 38.81MB SAIC Generic Sensor Format (GSF)
0060_20170811_181641_EX1707_MB-EM302.gsf.mb121.gz 38.34MB SAIC Generic Sensor Format (GSF)
0061_20170811_191352_EX1707_MB-EM302.gsf.mb121.gz 38.36MB SAIC Generic Sensor Format (GSF)
0062_20170811_201356_EX1707_MB-EM302.gsf.mb121.gz 37.72MB SAIC Generic Sensor Format (GSF)
0063_20170811_211355_EX1707_MB-EM302.gsf.mb121.gz 29.10MB SAIC Generic Sensor Format (GSF)
0064_20170811_221352_EX1707_MB-EM302.gsf.mb121.gz 21.67MB SAIC Generic Sensor Format (GSF)
0065_20170811_222203_EX1707_MB-EM302.gsf.mb121.gz 29.10MB SAIC Generic Sensor Format (GSF)
0066_20170811_232201_EX1707_MB-EM302.gsf.mb121.gz 37.18MB SAIC Generic Sensor Format (GSF)
0067_20170812_002153_EX1707_MB-EM302.gsf.mb121.gz 36.72MB SAIC Generic Sensor Format (GSF)
0068_20170812_011926_EX1707_MB-EM302.gsf.mb121.gz 37.33MB SAIC Generic Sensor Format (GSF)
0069_20170812_021922_EX1707_MB-EM302.gsf.mb121.gz 37.50MB SAIC Generic Sensor Format (GSF)
0070_20170812_031927_EX1707_MB-EM302.gsf.mb121.gz 37.08MB SAIC Generic Sensor Format (GSF)
0071_20170812_041924_EX1707_MB-EM302.gsf.mb121.gz 37.42MB SAIC Generic Sensor Format (GSF)
0072_20170812_051928_EX1707_MB-EM302.gsf.mb121.gz 37.17MB SAIC Generic Sensor Format (GSF)
0073_20170812_061922_EX1707_MB-EM302.gsf.mb121.gz 37.09MB SAIC Generic Sensor Format (GSF)
0074_20170812_071924_EX1707_MB-EM302.gsf.mb121.gz 37.18MB SAIC Generic Sensor Format (GSF)
0075_20170812_081921_EX1707_MB-EM302.gsf.mb121.gz 37.16MB SAIC Generic Sensor Format (GSF)
0076_20170812_091930_EX1707_MB-EM302.gsf.mb121.gz 35.82MB SAIC Generic Sensor Format (GSF)
0077_20170812_101927_EX1707_MB-EM302.gsf.mb121.gz 28.07MB SAIC Generic Sensor Format (GSF)
0078_20170812_110742_EX1707_MB-EM302.gsf.mb121.gz 24.53MB SAIC Generic Sensor Format (GSF)
0079_20170812_113103_EX1707_MB-EM302.gsf.mb121.gz 31.70MB SAIC Generic Sensor Format (GSF)
0080_20170812_123104_EX1707_MB-EM302.gsf.mb121.gz 37.47MB SAIC Generic Sensor Format (GSF)
0081_20170812_133105_EX1707_MB-EM302.gsf.mb121.gz 37.93MB SAIC Generic Sensor Format (GSF)
0082_20170812_143108_EX1707_MB-EM302.gsf.mb121.gz 37.75MB SAIC Generic Sensor Format (GSF)
0083_20170812_153102_EX1707_MB-EM302.gsf.mb121.gz 37.66MB SAIC Generic Sensor Format (GSF)
0084_20170812_163101_EX1707_MB-EM302.gsf.mb121.gz 37.80MB SAIC Generic Sensor Format (GSF)
0085_20170812_173102_EX1707_MB-EM302.gsf.mb121.gz 37.92MB SAIC Generic Sensor Format (GSF)
0086_20170812_183110_EX1707_MB-EM302.gsf.mb121.gz 37.48MB SAIC Generic Sensor Format (GSF)
0087_20170812_193110_EX1707_MB-EM302.gsf.mb121.gz 37.72MB SAIC Generic Sensor Format (GSF)
0088_20170812_203103_EX1707_MB-EM302.gsf.mb121.gz 37.75MB SAIC Generic Sensor Format (GSF)
0089_20170812_213108_EX1707_MB-EM302.gsf.mb121.gz 30.89MB SAIC Generic Sensor Format (GSF)
0090_20170812_223107_EX1707_MB-EM302.gsf.mb121.gz 19.15MB SAIC Generic Sensor Format (GSF)
0091_20170812_224702_EX1707_MB-EM302.gsf.mb121.gz 15.60MB SAIC Generic Sensor Format (GSF)
0092_20170812_231532_EX1707_MB-EM302.gsf.mb121.gz 22.31MB SAIC Generic Sensor Format (GSF)
0093_20170812_234139_EX1707_MB-EM302.gsf.mb121.gz 32.62MB SAIC Generic Sensor Format (GSF)
0094_20170813_004138_EX1707_MB-EM302.gsf.mb121.gz 38.19MB SAIC Generic Sensor Format (GSF)
0095_20170813_014137_EX1707_MB-EM302.gsf.mb121.gz 37.75MB SAIC Generic Sensor Format (GSF)
0096_20170813_024133_EX1707_MB-EM302.gsf.mb121.gz 37.79MB SAIC Generic Sensor Format (GSF)
0097_20170813_034140_EX1707_MB-EM302.gsf.mb121.gz 37.33MB SAIC Generic Sensor Format (GSF)
0098_20170813_044133_EX1707_MB-EM302.gsf.mb121.gz 37.71MB SAIC Generic Sensor Format (GSF)
0099_20170813_054137_EX1707_MB-EM302.gsf.mb121.gz 38.01MB SAIC Generic Sensor Format (GSF)
0100_20170813_064133_EX1707_MB-EM302.gsf.mb121.gz 37.47MB SAIC Generic Sensor Format (GSF)
0101_20170813_074135_EX1707_MB-EM302.gsf.mb121.gz 37.52MB SAIC Generic Sensor Format (GSF)
0102_20170813_084130_EX1707_MB-EM302.gsf.mb121.gz 38.07MB SAIC Generic Sensor Format (GSF)
0103_20170813_094138_EX1707_MB-EM302.gsf.mb121.gz 38.16MB SAIC Generic Sensor Format (GSF)
0104_20170813_104134_EX1707_MB-EM302.gsf.mb121.gz 30.98MB SAIC Generic Sensor Format (GSF)
0105_20170813_114134_EX1707_MB-EM302.gsf.mb121.gz 18.91MB SAIC Generic Sensor Format (GSF)
0106_20170813_115938_EX1707_MB-EM302.gsf.mb121.gz 19.81MB SAIC Generic Sensor Format (GSF)
0107_20170813_122404_EX1707_MB-EM302.gsf.mb121.gz 31.84MB SAIC Generic Sensor Format (GSF)
0108_20170813_132403_EX1707_MB-EM302.gsf.mb121.gz 37.82MB SAIC Generic Sensor Format (GSF)
0109_20170813_142406_EX1707_MB-EM302.gsf.mb121.gz 37.71MB SAIC Generic Sensor Format (GSF)
0110_20170813_152402_EX1707_MB-EM302.gsf.mb121.gz 37.42MB SAIC Generic Sensor Format (GSF)
0111_20170813_162410_EX1707_MB-EM302.gsf.mb121.gz 37.55MB SAIC Generic Sensor Format (GSF)
0112_20170813_172406_EX1707_MB-EM302.gsf.mb121.gz 37.86MB SAIC Generic Sensor Format (GSF)
0113_20170813_182404_EX1707_MB-EM302.gsf.mb121.gz 37.61MB SAIC Generic Sensor Format (GSF)
0114_20170813_192411_EX1707_MB-EM302.gsf.mb121.gz 37.29MB SAIC Generic Sensor Format (GSF)
0115_20170813_202403_EX1707_MB-EM302.gsf.mb121.gz 37.17MB SAIC Generic Sensor Format (GSF)
0116_20170813_212408_EX1707_MB-EM302.gsf.mb121.gz 36.81MB SAIC Generic Sensor Format (GSF)
0117_20170813_222059_EX1707_MB-EM302.gsf.mb121.gz 36.31MB SAIC Generic Sensor Format (GSF)
0118_20170813_232045_EX1707_MB-EM302.gsf.mb121.gz 30.01MB SAIC Generic Sensor Format (GSF)
0119_20170814_001315_EX1707_MB-EM302.gsf.mb121.gz 25.95MB SAIC Generic Sensor Format (GSF)
0120_20170814_003859_EX1707_MB-EM302.gsf.mb121.gz 32.39MB SAIC Generic Sensor Format (GSF)
0121_20170814_013900_EX1707_MB-EM302.gsf.mb121.gz 38.03MB SAIC Generic Sensor Format (GSF)
0122_20170814_023858_EX1707_MB-EM302.gsf.mb121.gz 37.65MB SAIC Generic Sensor Format (GSF)
0123_20170814_033854_EX1707_MB-EM302.gsf.mb121.gz 37.70MB SAIC Generic Sensor Format (GSF)
0124_20170814_043902_EX1707_MB-EM302.gsf.mb121.gz 37.02MB SAIC Generic Sensor Format (GSF)
0125_20170814_053855_EX1707_MB-EM302.gsf.mb121.gz 37.43MB SAIC Generic Sensor Format (GSF)
0126_20170814_063854_EX1707_MB-EM302.gsf.mb121.gz 37.90MB SAIC Generic Sensor Format (GSF)
0127_20170814_073852_EX1707_MB-EM302.gsf.mb121.gz 37.49MB SAIC Generic Sensor Format (GSF)
0128_20170814_083854_EX1707_MB-EM302.gsf.mb121.gz 37.66MB SAIC Generic Sensor Format (GSF)
0129_20170814_093858_EX1707_MB-EM302.gsf.mb121.gz 37.88MB SAIC Generic Sensor Format (GSF)
0130_20170814_103852_EX1707_MB-EM302.gsf.mb121.gz 37.59MB SAIC Generic Sensor Format (GSF)
0131_20170814_113900_EX1707_MB-EM302.gsf.mb121.gz 28.98MB SAIC Generic Sensor Format (GSF)
0132_20170814_123855_EX1707_MB-EM302.gsf.mb121.gz 15.37MB SAIC Generic Sensor Format (GSF)
0133_20170814_124452_EX1707_MB-EM302.gsf.mb121.gz 17.96MB SAIC Generic Sensor Format (GSF)
0134_20170814_130931_EX1707_MB-EM302.gsf.mb121.gz 31.74MB SAIC Generic Sensor Format (GSF)
0135_20170814_140934_EX1707_MB-EM302.gsf.mb121.gz 37.79MB SAIC Generic Sensor Format (GSF)
0136_20170814_150928_EX1707_MB-EM302.gsf.mb121.gz 37.74MB SAIC Generic Sensor Format (GSF)
0137_20170814_160928_EX1707_MB-EM302.gsf.mb121.gz 37.75MB SAIC Generic Sensor Format (GSF)
0138_20170814_170928_EX1707_MB-EM302.gsf.mb121.gz 37.67MB SAIC Generic Sensor Format (GSF)
0139_20170814_180935_EX1707_MB-EM302.gsf.mb121.gz 38.27MB SAIC Generic Sensor Format (GSF)
0140_20170814_190927_EX1707_MB-EM302.gsf.mb121.gz 37.90MB SAIC Generic Sensor Format (GSF)
0141_20170814_200933_EX1707_MB-EM302.gsf.mb121.gz 37.75MB SAIC Generic Sensor Format (GSF)
0142_20170814_210936_EX1707_MB-EM302.gsf.mb121.gz 33.36MB SAIC Generic Sensor Format (GSF)
0143_20170814_220933_EX1707_MB-EM302.gsf.mb121.gz 29.03MB SAIC Generic Sensor Format (GSF)
0144_20170814_224115_EX1707_MB-EM302.gsf.mb121.gz 33.31MB SAIC Generic Sensor Format (GSF)
0145_20170814_234108_EX1707_MB-EM302.gsf.mb121.gz 32.30MB SAIC Generic Sensor Format (GSF)
0146_20170815_004113_EX1707_MB-EM302.gsf.mb121.gz 21.54MB SAIC Generic Sensor Format (GSF)
0147_20170815_010702_EX1707_MB-EM302.gsf.mb121.gz 20.65MB SAIC Generic Sensor Format (GSF)
0148_20170815_013119_EX1707_MB-EM302.gsf.mb121.gz 31.61MB SAIC Generic Sensor Format (GSF)
0149_20170815_023110_EX1707_MB-EM302.gsf.mb121.gz 37.61MB SAIC Generic Sensor Format (GSF)
0150_20170815_033115_EX1707_MB-EM302.gsf.mb121.gz 37.09MB SAIC Generic Sensor Format (GSF)
0151_20170815_043113_EX1707_MB-EM302.gsf.mb121.gz 37.22MB SAIC Generic Sensor Format (GSF)
0152_20170815_053112_EX1707_MB-EM302.gsf.mb121.gz 37.38MB SAIC Generic Sensor Format (GSF)
0153_20170815_063115_EX1707_MB-EM302.gsf.mb121.gz 37.23MB SAIC Generic Sensor Format (GSF)
0154_20170815_073120_EX1707_MB-EM302.gsf.mb121.gz 37.41MB SAIC Generic Sensor Format (GSF)
0155_20170815_083117_EX1707_MB-EM302.gsf.mb121.gz 37.00MB SAIC Generic Sensor Format (GSF)
0156_20170815_093120_EX1707_MB-EM302.gsf.mb121.gz 36.95MB SAIC Generic Sensor Format (GSF)
0157_20170815_103110_EX1707_MB-EM302.gsf.mb121.gz 36.99MB SAIC Generic Sensor Format (GSF)
0158_20170815_113110_EX1707_MB-EM302.gsf.mb121.gz 35.61MB SAIC Generic Sensor Format (GSF)
0159_20170815_123119_EX1707_MB-EM302.gsf.mb121.gz 28.75MB SAIC Generic Sensor Format (GSF)
0160_20170815_132105_EX1707_MB-EM302.gsf.mb121.gz 25.22MB SAIC Generic Sensor Format (GSF)
0161_20170815_134725_EX1707_MB-EM302.gsf.mb121.gz 31.58MB SAIC Generic Sensor Format (GSF)
0162_20170815_144718_EX1707_MB-EM302.gsf.mb121.gz 37.16MB SAIC Generic Sensor Format (GSF)
0163_20170815_154717_EX1707_MB-EM302.gsf.mb121.gz 36.79MB SAIC Generic Sensor Format (GSF)
0164_20170815_164723_EX1707_MB-EM302.gsf.mb121.gz 37.05MB SAIC Generic Sensor Format (GSF)
0165_20170815_174718_EX1707_MB-EM302.gsf.mb121.gz 36.99MB SAIC Generic Sensor Format (GSF)
0166_20170815_184717_EX1707_MB-EM302.gsf.mb121.gz 37.42MB SAIC Generic Sensor Format (GSF)
0167_20170815_194714_EX1707_MB-EM302.gsf.mb121.gz 37.30MB SAIC Generic Sensor Format (GSF)
0168_20170815_204718_EX1707_MB-EM302.gsf.mb121.gz 36.99MB SAIC Generic Sensor Format (GSF)
0169_20170815_214721_EX1707_MB-EM302.gsf.mb121.gz 37.12MB SAIC Generic Sensor Format (GSF)
0170_20170815_224717_EX1707_MB-EM302.gsf.mb121.gz 37.21MB SAIC Generic Sensor Format (GSF)
0171_20170815_234719_EX1707_MB-EM302.gsf.mb121.gz 34.84MB SAIC Generic Sensor Format (GSF)
0172_20170816_004715_EX1707_MB-EM302.gsf.mb121.gz 26.60MB SAIC Generic Sensor Format (GSF)
0173_20170816_013141_EX1707_MB-EM302.gsf.mb121.gz 23.53MB SAIC Generic Sensor Format (GSF)
0174_20170816_015439_EX1707_MB-EM302.gsf.mb121.gz 31.29MB SAIC Generic Sensor Format (GSF)
0175_20170816_025435_EX1707_MB-EM302.gsf.mb121.gz 37.35MB SAIC Generic Sensor Format (GSF)
0176_20170816_035442_EX1707_MB-EM302.gsf.mb121.gz 36.98MB SAIC Generic Sensor Format (GSF)
0177_20170816_045441_EX1707_MB-EM302.gsf.mb121.gz 37.21MB SAIC Generic Sensor Format (GSF)
0178_20170816_055441_EX1707_MB-EM302.gsf.mb121.gz 36.94MB SAIC Generic Sensor Format (GSF)
0179_20170816_065438_EX1707_MB-EM302.gsf.mb121.gz 37.12MB SAIC Generic Sensor Format (GSF)
0180_20170816_075433_EX1707_MB-EM302.gsf.mb121.gz 37.56MB SAIC Generic Sensor Format (GSF)
0181_20170816_085434_EX1707_MB-EM302.gsf.mb121.gz 37.07MB SAIC Generic Sensor Format (GSF)
0182_20170816_095438_EX1707_MB-EM302.gsf.mb121.gz 37.06MB SAIC Generic Sensor Format (GSF)
0183_20170816_105439_EX1707_MB-EM302.gsf.mb121.gz 36.91MB SAIC Generic Sensor Format (GSF)
0184_20170816_115440_EX1707_MB-EM302.gsf.mb121.gz 35.54MB SAIC Generic Sensor Format (GSF)
0185_20170816_125436_EX1707_MB-EM302.gsf.mb121.gz 27.91MB SAIC Generic Sensor Format (GSF)
0186_20170816_134344_EX1707_MB-EM302.gsf.mb121.gz 24.04MB SAIC Generic Sensor Format (GSF)
0187_20170816_140639_EX1707_MB-EM302.gsf.mb121.gz 31.40MB SAIC Generic Sensor Format (GSF)
0188_20170816_150641_EX1707_MB-EM302.gsf.mb121.gz 37.32MB SAIC Generic Sensor Format (GSF)
0189_20170816_160641_EX1707_MB-EM302.gsf.mb121.gz 37.22MB SAIC Generic Sensor Format (GSF)
0190_20170816_170646_EX1707_MB-EM302.gsf.mb121.gz 37.08MB SAIC Generic Sensor Format (GSF)
0191_20170816_180643_EX1707_MB-EM302.gsf.mb121.gz 37.06MB SAIC Generic Sensor Format (GSF)
0192_20170816_190638_EX1707_MB-EM302.gsf.mb121.gz 37.14MB SAIC Generic Sensor Format (GSF)
0193_20170816_200640_EX1707_MB-EM302.gsf.mb121.gz 37.20MB SAIC Generic Sensor Format (GSF)
0194_20170816_210645_EX1707_MB-EM302.gsf.mb121.gz 37.09MB SAIC Generic Sensor Format (GSF)
0195_20170816_220639_EX1707_MB-EM302.gsf.mb121.gz 37.09MB SAIC Generic Sensor Format (GSF)
0196_20170816_230642_EX1707_MB-EM302.gsf.mb121.gz 36.90MB SAIC Generic Sensor Format (GSF)
0197_20170817_000646_EX1707_MB-EM302.gsf.mb121.gz 35.59MB SAIC Generic Sensor Format (GSF)
0198_20170817_010525_EX1707_MB-EM302.gsf.mb121.gz 27.97MB SAIC Generic Sensor Format (GSF)
0199_20170817_015607_EX1707_MB-EM302.gsf.mb121.gz 24.25MB SAIC Generic Sensor Format (GSF)
0200_20170817_021810_EX1707_MB-EM302.gsf.mb121.gz 31.40MB SAIC Generic Sensor Format (GSF)
0201_20170817_031808_EX1707_MB-EM302.gsf.mb121.gz 37.40MB SAIC Generic Sensor Format (GSF)
0202_20170817_041809_EX1707_MB-EM302.gsf.mb121.gz 37.20MB SAIC Generic Sensor Format (GSF)
0203_20170817_051814_EX1707_MB-EM302.gsf.mb121.gz 37.14MB SAIC Generic Sensor Format (GSF)
0204_20170817_061808_EX1707_MB-EM302.gsf.mb121.gz 37.14MB SAIC Generic Sensor Format (GSF)
0205_20170817_071819_EX1707_MB-EM302.gsf.mb121.gz 37.39MB SAIC Generic Sensor Format (GSF)
0206_20170817_081816_EX1707_MB-EM302.gsf.mb121.gz 37.92MB SAIC Generic Sensor Format (GSF)
0207_20170817_091812_EX1707_MB-EM302.gsf.mb121.gz 37.00MB SAIC Generic Sensor Format (GSF)
0208_20170817_101810_EX1707_MB-EM302.gsf.mb121.gz 37.24MB SAIC Generic Sensor Format (GSF)
0209_20170817_111811_EX1707_MB-EM302.gsf.mb121.gz 36.89MB SAIC Generic Sensor Format (GSF)
0210_20170817_121813_EX1707_MB-EM302.gsf.mb121.gz 36.32MB SAIC Generic Sensor Format (GSF)
0211_20170817_131815_EX1707_MB-EM302.gsf.mb121.gz 29.32MB SAIC Generic Sensor Format (GSF)
0212_20170817_141247_EX1707_MB-EM302.gsf.mb121.gz 24.72MB SAIC Generic Sensor Format (GSF)
0213_20170817_143406_EX1707_MB-EM302.gsf.mb121.gz 30.90MB SAIC Generic Sensor Format (GSF)
0214_20170817_153406_EX1707_MB-EM302.gsf.mb121.gz 37.40MB SAIC Generic Sensor Format (GSF)
0215_20170817_163406_EX1707_MB-EM302.gsf.mb121.gz 36.87MB SAIC Generic Sensor Format (GSF)
0216_20170817_173400_EX1707_MB-EM302.gsf.mb121.gz 37.54MB SAIC Generic Sensor Format (GSF)
0217_20170817_183402_EX1707_MB-EM302.gsf.mb121.gz 37.48MB SAIC Generic Sensor Format (GSF)
0218_20170817_193408_EX1707_MB-EM302.gsf.mb121.gz 37.53MB SAIC Generic Sensor Format (GSF)
0219_20170817_203407_EX1707_MB-EM302.gsf.mb121.gz 36.73MB SAIC Generic Sensor Format (GSF)
0220_20170817_213402_EX1707_MB-EM302.gsf.mb121.gz 37.01MB SAIC Generic Sensor Format (GSF)
0221_20170817_223403_EX1707_MB-EM302.gsf.mb121.gz 37.34MB SAIC Generic Sensor Format (GSF)
0222_20170817_233407_EX1707_MB-EM302.gsf.mb121.gz 37.36MB SAIC Generic Sensor Format (GSF)
0223_20170818_003359_EX1707_MB-EM302.gsf.mb121.gz 32.02MB SAIC Generic Sensor Format (GSF)
0224_20170818_013404_EX1707_MB-EM302.gsf.mb121.gz 22.09MB SAIC Generic Sensor Format (GSF)
0225_20170818_020050_EX1707_MB-EM302.gsf.mb121.gz 22.21MB SAIC Generic Sensor Format (GSF)
0226_20170818_022832_EX1707_MB-EM302.gsf.mb121.gz 31.90MB SAIC Generic Sensor Format (GSF)
0227_20170818_032828_EX1707_MB-EM302.gsf.mb121.gz 37.14MB SAIC Generic Sensor Format (GSF)
0228_20170818_042828_EX1707_MB-EM302.gsf.mb121.gz 37.22MB SAIC Generic Sensor Format (GSF)
0229_20170818_052829_EX1707_MB-EM302.gsf.mb121.gz 37.31MB SAIC Generic Sensor Format (GSF)
0230_20170818_062837_EX1707_MB-EM302.gsf.mb121.gz 37.08MB SAIC Generic Sensor Format (GSF)
0231_20170818_072838_EX1707_MB-EM302.gsf.mb121.gz 37.18MB SAIC Generic Sensor Format (GSF)
0232_20170818_082835_EX1707_MB-EM302.gsf.mb121.gz 36.68MB SAIC Generic Sensor Format (GSF)
0233_20170818_092835_EX1707_MB-EM302.gsf.mb121.gz 37.24MB SAIC Generic Sensor Format (GSF)
0234_20170818_102834_EX1707_MB-EM302.gsf.mb121.gz 37.02MB SAIC Generic Sensor Format (GSF)
0235_20170818_112829_EX1707_MB-EM302.gsf.mb121.gz 37.03MB SAIC Generic Sensor Format (GSF)
0236_20170818_122838_EX1707_MB-EM302.gsf.mb121.gz 34.46MB SAIC Generic Sensor Format (GSF)
0237_20170818_132837_EX1707_MB-EM302.gsf.mb121.gz 25.76MB SAIC Generic Sensor Format (GSF)
0238_20170818_141047_EX1707_MB-EM302.gsf.mb121.gz 22.95MB SAIC Generic Sensor Format (GSF)
0239_20170818_143309_EX1707_MB-EM302.gsf.mb121.gz 31.32MB SAIC Generic Sensor Format (GSF)
0240_20170818_153312_EX1707_MB-EM302.gsf.mb121.gz 37.22MB SAIC Generic Sensor Format (GSF)
0241_20170818_163314_EX1707_MB-EM302.gsf.mb121.gz 37.26MB SAIC Generic Sensor Format (GSF)
0242_20170818_173315_EX1707_MB-EM302.gsf.mb121.gz 37.47MB SAIC Generic Sensor Format (GSF)
0243_20170818_183309_EX1707_MB-EM302.gsf.mb121.gz 31.31MB SAIC Generic Sensor Format (GSF)
0244_20170818_193313_EX1707_MB-EM302.gsf.mb121.gz 20.18MB SAIC Generic Sensor Format (GSF)
0245_20170818_195722_EX1707_MB-EM302.gsf.mb121.gz 11.93MB SAIC Generic Sensor Format (GSF)
0246_20170818_201811_EX1707_MB-EM302.gsf.mb121.gz 9.80MB SAIC Generic Sensor Format (GSF)
0247_20170818_202901_EX1707_MB-EM302.gsf.mb121.gz 17.30MB SAIC Generic Sensor Format (GSF)
0248_20170818_204851_EX1707_MB-EM302.gsf.mb121.gz 30.95MB SAIC Generic Sensor Format (GSF)
0249_20170818_214853_EX1707_MB-EM302.gsf.mb121.gz 36.90MB SAIC Generic Sensor Format (GSF)
0250_20170818_224853_EX1707_MB-EM302.gsf.mb121.gz 37.13MB SAIC Generic Sensor Format (GSF)
0251_20170818_234851_EX1707_MB-EM302.gsf.mb121.gz 37.04MB SAIC Generic Sensor Format (GSF)
0252_20170819_004852_EX1707_MB-EM302.gsf.mb121.gz 37.50MB SAIC Generic Sensor Format (GSF)
0253_20170819_014846_EX1707_MB-EM302.gsf.mb121.gz 32.76MB SAIC Generic Sensor Format (GSF)
0254_20170819_024846_EX1707_MB-EM302.gsf.mb121.gz 22.67MB SAIC Generic Sensor Format (GSF)
0255_20170819_032043_EX1707_MB-EM302.gsf.mb121.gz 20.86MB SAIC Generic Sensor Format (GSF)
0256_20170819_034146_EX1707_MB-EM302.gsf.mb121.gz 31.39MB SAIC Generic Sensor Format (GSF)
0257_20170819_044151_EX1707_MB-EM302.gsf.mb121.gz 37.39MB SAIC Generic Sensor Format (GSF)
0258_20170819_054147_EX1707_MB-EM302.gsf.mb121.gz 37.53MB SAIC Generic Sensor Format (GSF)
0259_20170819_064143_EX1707_MB-EM302.gsf.mb121.gz 37.55MB SAIC Generic Sensor Format (GSF)
0260_20170819_074150_EX1707_MB-EM302.gsf.mb121.gz 37.22MB SAIC Generic Sensor Format (GSF)
0261_20170819_084149_EX1707_MB-EM302.gsf.mb121.gz 37.09MB SAIC Generic Sensor Format (GSF)
0262_20170819_094150_EX1707_MB-EM302.gsf.mb121.gz 37.56MB SAIC Generic Sensor Format (GSF)
0263_20170819_104148_EX1707_MB-EM302.gsf.mb121.gz 37.01MB SAIC Generic Sensor Format (GSF)
0264_20170819_114148_EX1707_MB-EM302.gsf.mb121.gz 37.21MB SAIC Generic Sensor Format (GSF)
0265_20170819_124151_EX1707_MB-EM302.gsf.mb121.gz 37.17MB SAIC Generic Sensor Format (GSF)
0266_20170819_134145_EX1707_MB-EM302.gsf.mb121.gz 36.16MB SAIC Generic Sensor Format (GSF)
0267_20170819_144143_EX1707_MB-EM302.gsf.mb121.gz 28.39MB SAIC Generic Sensor Format (GSF)
0268_20170819_153326_EX1707_MB-EM302.gsf.mb121.gz 23.13MB SAIC Generic Sensor Format (GSF)
0269_20170819_155025_EX1707_MB-EM302.gsf.mb121.gz 30.83MB SAIC Generic Sensor Format (GSF)
0270_20170819_165022_EX1707_MB-EM302.gsf.mb121.gz 37.28MB SAIC Generic Sensor Format (GSF)
0271_20170819_175025_EX1707_MB-EM302.gsf.mb121.gz 37.19MB SAIC Generic Sensor Format (GSF)
0272_20170819_185025_EX1707_MB-EM302.gsf.mb121.gz 31.82MB SAIC Generic Sensor Format (GSF)
0273_20170819_195020_EX1707_MB-EM302.gsf.mb121.gz 26.93MB SAIC Generic Sensor Format (GSF)
0274_20170819_201552_EX1707_MB-EM302.gsf.mb121.gz 28.67MB SAIC Generic Sensor Format (GSF)
0275_20170819_211545_EX1707_MB-EM302.gsf.mb121.gz 29.79MB SAIC Generic Sensor Format (GSF)
0276_20170819_215619_EX1707_MB-EM302.gsf.mb121.gz 30.64MB SAIC Generic Sensor Format (GSF)
0277_20170819_224402_EX1707_MB-EM302.gsf.mb121.gz 35.64MB SAIC Generic Sensor Format (GSF)
0278_20170819_234405_EX1707_MB-EM302.gsf.mb121.gz 34.17MB SAIC Generic Sensor Format (GSF)
0279_20170820_004407_EX1707_MB-EM302.gsf.mb121.gz 27.83MB SAIC Generic Sensor Format (GSF)
0280_20170820_012200_EX1707_MB-EM302.gsf.mb121.gz 27.96MB SAIC Generic Sensor Format (GSF)
0281_20170820_020349_EX1707_MB-EM302.gsf.mb121.gz 34.40MB SAIC Generic Sensor Format (GSF)
0282_20170820_030342_EX1707_MB-EM302.gsf.mb121.gz 38.13MB SAIC Generic Sensor Format (GSF)
0283_20170820_040346_EX1707_MB-EM302.gsf.mb121.gz 38.03MB SAIC Generic Sensor Format (GSF)
0284_20170820_050344_EX1707_MB-EM302.gsf.mb121.gz 37.43MB SAIC Generic Sensor Format (GSF)
0285_20170820_060346_EX1707_MB-EM302.gsf.mb121.gz 36.97MB SAIC Generic Sensor Format (GSF)
0286_20170820_070346_EX1707_MB-EM302.gsf.mb121.gz 37.06MB SAIC Generic Sensor Format (GSF)
0287_20170820_080346_EX1707_MB-EM302.gsf.mb121.gz 37.07MB SAIC Generic Sensor Format (GSF)
0288_20170820_090351_EX1707_MB-EM302.gsf.mb121.gz 37.19MB SAIC Generic Sensor Format (GSF)
0289_20170820_100345_EX1707_MB-EM302.gsf.mb121.gz 36.18MB SAIC Generic Sensor Format (GSF)
0290_20170820_110345_EX1707_MB-EM302.gsf.mb121.gz 35.19MB SAIC Generic Sensor Format (GSF)
0291_20170820_115655_EX1707_MB-EM302.gsf.mb121.gz 42.44MB SAIC Generic Sensor Format (GSF)
0292_20170820_125651_EX1707_MB-EM302.gsf.mb121.gz 46.61MB SAIC Generic Sensor Format (GSF)
0293_20170820_135649_EX1707_MB-EM302.gsf.mb121.gz 38.12MB SAIC Generic Sensor Format (GSF)
0294_20170820_145649_EX1707_MB-EM302.gsf.mb121.gz 42.91MB SAIC Generic Sensor Format (GSF)
0295_20170820_155655_EX1707_MB-EM302.gsf.mb121.gz 40.21MB SAIC Generic Sensor Format (GSF)
0296_20170820_163534_EX1707_MB-EM302.gsf.mb121.gz 34.35MB SAIC Generic Sensor Format (GSF)
0297_20170820_173523_EX1707_MB-EM302.gsf.mb121.gz 40.40MB SAIC Generic Sensor Format (GSF)
0298_20170820_183524_EX1707_MB-EM302.gsf.mb121.gz 37.52MB SAIC Generic Sensor Format (GSF)
0299_20170820_193532_EX1707_MB-EM302.gsf.mb121.gz 21.20MB SAIC Generic Sensor Format (GSF)
0300_20170820_194202_EX1707_MB-EM302.gsf.mb121.gz 28.84MB SAIC Generic Sensor Format (GSF)
0301_20170820_204158_EX1707_MB-EM302.gsf.mb121.gz 34.16MB SAIC Generic Sensor Format (GSF)
0302_20170820_214157_EX1707_MB-EM302.gsf.mb121.gz 31.38MB SAIC Generic Sensor Format (GSF)
0303_20170820_222223_EX1707_MB-EM302.gsf.mb121.gz 28.79MB SAIC Generic Sensor Format (GSF)
0304_20170820_232204_EX1707_MB-EM302.gsf.mb121.gz 27.22MB SAIC Generic Sensor Format (GSF)
0305_20170820_234735_EX1707_MB-EM302.gsf.mb121.gz 36.77MB SAIC Generic Sensor Format (GSF)
0306_20170821_004735_EX1707_MB-EM302.gsf.mb121.gz 30.29MB SAIC Generic Sensor Format (GSF)
0307_20170821_014734_EX1707_MB-EM302.gsf.mb121.gz 16.01MB SAIC Generic Sensor Format (GSF)
0308_20170821_015631_EX1707_MB-EM302.gsf.mb121.gz 18.14MB SAIC Generic Sensor Format (GSF)
0309_20170821_021848_EX1707_MB-EM302.gsf.mb121.gz 37.82MB SAIC Generic Sensor Format (GSF)
0310_20170821_031843_EX1707_MB-EM302.gsf.mb121.gz 30.43MB SAIC Generic Sensor Format (GSF)
0311_20170821_034751_EX1707_MB-EM302.gsf.mb121.gz 15.50MB SAIC Generic Sensor Format (GSF)
0312_20170821_040334_EX1707_MB-EM302.gsf.mb121.gz 10.25MB SAIC Generic Sensor Format (GSF)
0313_20170821_040943_EX1707_MB-EM302.gsf.mb121.gz 19.65MB SAIC Generic Sensor Format (GSF)
0314_20170821_043246_EX1707_MB-EM302.gsf.mb121.gz 25.92MB SAIC Generic Sensor Format (GSF)
0315_20170821_045631_EX1707_MB-EM302.gsf.mb121.gz 42.19MB SAIC Generic Sensor Format (GSF)
0316_20170821_055633_EX1707_MB-EM302.gsf.mb121.gz 35.41MB SAIC Generic Sensor Format (GSF)
0317_20170821_065624_EX1707_MB-EM302.gsf.mb121.gz 18.64MB SAIC Generic Sensor Format (GSF)
0318_20170821_070755_EX1707_MB-EM302.gsf.mb121.gz 21.34MB SAIC Generic Sensor Format (GSF)
0319_20170821_074027_EX1707_MB-EM302.gsf.mb121.gz 32.84MB SAIC Generic Sensor Format (GSF)
0320_20170821_084027_EX1707_MB-EM302.gsf.mb121.gz 37.15MB SAIC Generic Sensor Format (GSF)
0321_20170821_094033_EX1707_MB-EM302.gsf.mb121.gz 37.35MB SAIC Generic Sensor Format (GSF)
0322_20170821_104024_EX1707_MB-EM302.gsf.mb121.gz 37.85MB SAIC Generic Sensor Format (GSF)
0323_20170821_114033_EX1707_MB-EM302.gsf.mb121.gz 37.74MB SAIC Generic Sensor Format (GSF)
0324_20170821_124028_EX1707_MB-EM302.gsf.mb121.gz 37.73MB SAIC Generic Sensor Format (GSF)
0325_20170821_134030_EX1707_MB-EM302.gsf.mb121.gz 37.63MB SAIC Generic Sensor Format (GSF)
0326_20170821_144023_EX1707_MB-EM302.gsf.mb121.gz 33.06MB SAIC Generic Sensor Format (GSF)
0327_20170821_154029_EX1707_MB-EM302.gsf.mb121.gz 29.75MB SAIC Generic Sensor Format (GSF)
0328_20170821_161534_EX1707_MB-EM302.gsf.mb121.gz 35.31MB SAIC Generic Sensor Format (GSF)
0329_20170821_171533_EX1707_MB-EM302.gsf.mb121.gz 21.89MB SAIC Generic Sensor Format (GSF)
0330_20170821_174206_EX1707_MB-EM302.gsf.mb121.gz 21.15MB SAIC Generic Sensor Format (GSF)
0331_20170821_180327_EX1707_MB-EM302.gsf.mb121.gz 26.50MB SAIC Generic Sensor Format (GSF)
0332_20170821_190322_EX1707_MB-EM302.gsf.mb121.gz 16.79MB SAIC Generic Sensor Format (GSF)
0333_20170821_191536_EX1707_MB-EM302.gsf.mb121.gz 17.51MB SAIC Generic Sensor Format (GSF)
0334_20170821_193418_EX1707_MB-EM302.gsf.mb121.gz 27.03MB SAIC Generic Sensor Format (GSF)
0335_20170821_203417_EX1707_MB-EM302.gsf.mb121.gz 20.67MB SAIC Generic Sensor Format (GSF)
0335_20170821_210638_EX1707_MB-EM302.gsf.mb121.gz 7.21MB SAIC Generic Sensor Format (GSF)
0336_20170821_210811_EX1707_MB-EM302.gsf.mb121.gz 33.14MB SAIC Generic Sensor Format (GSF)
0337_20170821_214744_EX1707_MB-EM302.gsf.mb121.gz 25.07MB SAIC Generic Sensor Format (GSF)
0338_20170821_224735_EX1707_MB-EM302.gsf.mb121.gz 19.40MB SAIC Generic Sensor Format (GSF)
0339_20170821_224821_EX1707_MB-EM302.gsf.mb121.gz 27.52MB SAIC Generic Sensor Format (GSF)
0340_20170821_234808_EX1707_MB-EM302.gsf.mb121.gz 28.92MB SAIC Generic Sensor Format (GSF)
0341_20170822_004809_EX1707_MB-EM302.gsf.mb121.gz 12.74MB SAIC Generic Sensor Format (GSF)
0342_20170822_005326_EX1707_MB-EM302.gsf.mb121.gz 12.73MB SAIC Generic Sensor Format (GSF)
0343_20170822_010245_EX1707_MB-EM302.gsf.mb121.gz 28.28MB SAIC Generic Sensor Format (GSF)
0344_20170822_015857_EX1707_MB-EM302.gsf.mb121.gz 37.18MB SAIC Generic Sensor Format (GSF)
0345_20170822_025849_EX1707_MB-EM302.gsf.mb121.gz 38.69MB SAIC Generic Sensor Format (GSF)
0346_20170822_035854_EX1707_MB-EM302.gsf.mb121.gz 39.24MB SAIC Generic Sensor Format (GSF)
0347_20170822_045850_EX1707_MB-EM302.gsf.mb121.gz 34.36MB SAIC Generic Sensor Format (GSF)
0348_20170822_055849_EX1707_MB-EM302.gsf.mb121.gz 28.59MB SAIC Generic Sensor Format (GSF)
0349_20170822_062645_EX1707_MB-EM302.gsf.mb121.gz 51.00MB SAIC Generic Sensor Format (GSF)
0350_20170822_072637_EX1707_MB-EM302.gsf.mb121.gz 43.22MB SAIC Generic Sensor Format (GSF)
0351_20170822_082646_EX1707_MB-EM302.gsf.mb121.gz 39.82MB SAIC Generic Sensor Format (GSF)
0352_20170822_092645_EX1707_MB-EM302.gsf.mb121.gz 31.89MB SAIC Generic Sensor Format (GSF)
0353_20170822_102639_EX1707_MB-EM302.gsf.mb121.gz 22.98MB SAIC Generic Sensor Format (GSF)
0354_20170822_103720_EX1707_MB-EM302.gsf.mb121.gz 32.10MB SAIC Generic Sensor Format (GSF)
0355_20170822_113723_EX1707_MB-EM302.gsf.mb121.gz 39.66MB SAIC Generic Sensor Format (GSF)
0356_20170822_123720_EX1707_MB-EM302.gsf.mb121.gz 40.46MB SAIC Generic Sensor Format (GSF)
0357_20170822_133729_EX1707_MB-EM302.gsf.mb121.gz 40.29MB SAIC Generic Sensor Format (GSF)
0358_20170822_143725_EX1707_MB-EM302.gsf.mb121.gz 38.08MB SAIC Generic Sensor Format (GSF)
0359_20170822_153725_EX1707_MB-EM302.gsf.mb121.gz 29.65MB SAIC Generic Sensor Format (GSF)
0360_20170822_162324_EX1707_MB-EM302.gsf.mb121.gz 25.92MB SAIC Generic Sensor Format (GSF)
0361_20170822_164941_EX1707_MB-EM302.gsf.mb121.gz 35.32MB SAIC Generic Sensor Format (GSF)
0362_20170822_174936_EX1707_MB-EM302.gsf.mb121.gz 40.86MB SAIC Generic Sensor Format (GSF)
0363_20170822_184940_EX1707_MB-EM302.gsf.mb121.gz 41.39MB SAIC Generic Sensor Format (GSF)
0364_20170822_194943_EX1707_MB-EM302.gsf.mb121.gz 46.60MB SAIC Generic Sensor Format (GSF)
0365_20170822_204940_EX1707_MB-EM302.gsf.mb121.gz 23.43MB SAIC Generic Sensor Format (GSF)
0366_20170822_210252_EX1707_MB-EM302.gsf.mb121.gz 20.44MB SAIC Generic Sensor Format (GSF)
0367_20170822_214301_EX1707_MB-EM302.gsf.mb121.gz 19.74MB SAIC Generic Sensor Format (GSF)
0368_20170822_221037_EX1707_MB-EM302.gsf.mb121.gz 22.43MB SAIC Generic Sensor Format (GSF)
0369_20170822_223546_EX1707_MB-EM302.gsf.mb121.gz 34.07MB SAIC Generic Sensor Format (GSF)
0370_20170822_233531_EX1707_MB-EM302.gsf.mb121.gz 39.78MB SAIC Generic Sensor Format (GSF)
0371_20170823_003532_EX1707_MB-EM302.gsf.mb121.gz 40.45MB SAIC Generic Sensor Format (GSF)
0372_20170823_013533_EX1707_MB-EM302.gsf.mb121.gz 32.45MB SAIC Generic Sensor Format (GSF)
0373_20170823_023538_EX1707_MB-EM302.gsf.mb121.gz 25.30MB SAIC Generic Sensor Format (GSF)
0374_20170823_025454_EX1707_MB-EM302.gsf.mb121.gz 22.72MB SAIC Generic Sensor Format (GSF)
0375_20170823_035458_EX1707_MB-EM302.gsf.mb121.gz 21.42MB SAIC Generic Sensor Format (GSF)
0376_20170823_040149_EX1707_MB-EM302.gsf.mb121.gz 29.08MB SAIC Generic Sensor Format (GSF)
0377_20170823_050151_EX1707_MB-EM302.gsf.mb121.gz 38.81MB SAIC Generic Sensor Format (GSF)
0378_20170823_060144_EX1707_MB-EM302.gsf.mb121.gz 36.73MB SAIC Generic Sensor Format (GSF)
0379_20170823_070145_EX1707_MB-EM302.gsf.mb121.gz 30.16MB SAIC Generic Sensor Format (GSF)
0380_20170823_074235_EX1707_MB-EM302.gsf.mb121.gz 24.18MB SAIC Generic Sensor Format (GSF)
0381_20170823_082422_EX1707_MB-EM302.gsf.mb121.gz 17.55MB SAIC Generic Sensor Format (GSF)
0382_20170823_084714_EX1707_MB-EM302.gsf.mb121.gz 20.24MB SAIC Generic Sensor Format (GSF)
0383_20170823_090747_EX1707_MB-EM302.gsf.mb121.gz 41.53MB SAIC Generic Sensor Format (GSF)
0384_20170823_100746_EX1707_MB-EM302.gsf.mb121.gz 39.33MB SAIC Generic Sensor Format (GSF)
0385_20170823_110749_EX1707_MB-EM302.gsf.mb121.gz 29.51MB SAIC Generic Sensor Format (GSF)
0386_20170823_120747_EX1707_MB-EM302.gsf.mb121.gz 14.58MB SAIC Generic Sensor Format (GSF)
0387_20170823_121206_EX1707_MB-EM302.gsf.mb121.gz 17.61MB SAIC Generic Sensor Format (GSF)
0388_20170823_123420_EX1707_MB-EM302.gsf.mb121.gz 33.14MB SAIC Generic Sensor Format (GSF)
0389_20170823_133422_EX1707_MB-EM302.gsf.mb121.gz 39.41MB SAIC Generic Sensor Format (GSF)
0390_20170823_143427_EX1707_MB-EM302.gsf.mb121.gz 50.49MB SAIC Generic Sensor Format (GSF)
0391_20170823_153425_EX1707_MB-EM302.gsf.mb121.gz 38.98MB SAIC Generic Sensor Format (GSF)
0392_20170823_163425_EX1707_MB-EM302.gsf.mb121.gz 35.76MB SAIC Generic Sensor Format (GSF)
0393_20170823_173421_EX1707_MB-EM302.gsf.mb121.gz 33.08MB SAIC Generic Sensor Format (GSF)
0394_20170823_181428_EX1707_MB-EM302.gsf.mb121.gz 51.67MB SAIC Generic Sensor Format (GSF)
0395_20170823_191434_EX1707_MB-EM302.gsf.mb121.gz 40.20MB SAIC Generic Sensor Format (GSF)
0396_20170823_200739_EX1707_MB-EM302.gsf.mb121.gz 20.37MB SAIC Generic Sensor Format (GSF)
0397_20170823_204237_EX1707_MB-EM302.gsf.mb121.gz 9.82MB SAIC Generic Sensor Format (GSF)
0398_20170823_204520_EX1707_MB-EM302.gsf.mb121.gz 9.14MB SAIC Generic Sensor Format (GSF)
0399_20170823_210621_EX1707_MB-EM302.gsf.mb121.gz 16.58MB SAIC Generic Sensor Format (GSF)
0400_20170823_211516_EX1707_MB-EM302.gsf.mb121.gz 39.41MB SAIC Generic Sensor Format (GSF)
0401_20170823_221518_EX1707_MB-EM302.gsf.mb121.gz 25.72MB SAIC Generic Sensor Format (GSF)
0402_20170823_222554_EX1707_MB-EM302.gsf.mb121.gz 38.45MB SAIC Generic Sensor Format (GSF)
0403_20170823_232558_EX1707_MB-EM302.gsf.mb121.gz 23.59MB SAIC Generic Sensor Format (GSF)
0404_20170823_233403_EX1707_MB-EM302.gsf.mb121.gz 26.79MB SAIC Generic Sensor Format (GSF)
0405_20170824_003356_EX1707_MB-EM302.gsf.mb121.gz 31.95MB SAIC Generic Sensor Format (GSF)
0406_20170824_011023_EX1707_MB-EM302.gsf.mb121.gz 42.44MB SAIC Generic Sensor Format (GSF)
0407_20170824_021013_EX1707_MB-EM302.gsf.mb121.gz 15.56MB SAIC Generic Sensor Format (GSF)
0408_20170824_022041_EX1707_MB-EM302.gsf.mb121.gz 12.67MB SAIC Generic Sensor Format (GSF)
0409_20170824_022438_EX1707_MB-EM302.gsf.mb121.gz 27.61MB SAIC Generic Sensor Format (GSF)
0410_20170824_032441_EX1707_MB-EM302.gsf.mb121.gz 28.73MB SAIC Generic Sensor Format (GSF)
0411_20170824_040631_EX1707_MB-EM302.gsf.mb121.gz 26.32MB SAIC Generic Sensor Format (GSF)
0412_20170824_043628_EX1707_MB-EM302.gsf.mb121.gz 34.30MB SAIC Generic Sensor Format (GSF)
0413_20170824_053633_EX1707_MB-EM302.gsf.mb121.gz 39.17MB SAIC Generic Sensor Format (GSF)
0414_20170824_063629_EX1707_MB-EM302.gsf.mb121.gz 40.77MB SAIC Generic Sensor Format (GSF)
0415_20170824_073627_EX1707_MB-EM302.gsf.mb121.gz 40.58MB SAIC Generic Sensor Format (GSF)
0416_20170824_083629_EX1707_MB-EM302.gsf.mb121.gz 39.73MB SAIC Generic Sensor Format (GSF)
0417_20170824_093638_EX1707_MB-EM302.gsf.mb121.gz 39.47MB SAIC Generic Sensor Format (GSF)
0418_20170824_103634_EX1707_MB-EM302.gsf.mb121.gz 41.14MB SAIC Generic Sensor Format (GSF)
0419_20170824_113628_EX1707_MB-EM302.gsf.mb121.gz 19.54MB SAIC Generic Sensor Format (GSF)
0420_20170824_115407_EX1707_MB-EM302.gsf.mb121.gz 20.79MB SAIC Generic Sensor Format (GSF)
0421_20170824_121939_EX1707_MB-EM302.gsf.mb121.gz 39.70MB SAIC Generic Sensor Format (GSF)
0422_20170824_131933_EX1707_MB-EM302.gsf.mb121.gz 39.45MB SAIC Generic Sensor Format (GSF)
0423_20170824_141935_EX1707_MB-EM302.gsf.mb121.gz 38.87MB SAIC Generic Sensor Format (GSF)
0424_20170824_151934_EX1707_MB-EM302.gsf.mb121.gz 45.77MB SAIC Generic Sensor Format (GSF)
0425_20170824_161935_EX1707_MB-EM302.gsf.mb121.gz 45.14MB SAIC Generic Sensor Format (GSF)
0426_20170824_171942_EX1707_MB-EM302.gsf.mb121.gz 26.15MB SAIC Generic Sensor Format (GSF)
0427_20170824_175828_EX1707_MB-EM302.gsf.mb121.gz 23.80MB SAIC Generic Sensor Format (GSF)
0428_20170824_182430_EX1707_MB-EM302.gsf.mb121.gz 30.39MB SAIC Generic Sensor Format (GSF)
0429_20170824_192429_EX1707_MB-EM302.gsf.mb121.gz 29.63MB SAIC Generic Sensor Format (GSF)
0430_20170824_200838_EX1707_MB-EM302.gsf.mb121.gz 31.06MB SAIC Generic Sensor Format (GSF)
0431_20170824_204410_EX1707_MB-EM302.gsf.mb121.gz 17.27MB SAIC Generic Sensor Format (GSF)
0432_20170824_210729_EX1707_MB-EM302.gsf.mb121.gz 21.08MB SAIC Generic Sensor Format (GSF)
0433_20170824_213059_EX1707_MB-EM302.gsf.mb121.gz 27.86MB SAIC Generic Sensor Format (GSF)
0434_20170824_223102_EX1707_MB-EM302.gsf.mb121.gz 17.78MB SAIC Generic Sensor Format (GSF)
0435_20170824_224933_EX1707_MB-EM302.gsf.mb121.gz 11.18MB SAIC Generic Sensor Format (GSF)
0436_20170824_230230_EX1707_MB-EM302.gsf.mb121.gz 19.57MB SAIC Generic Sensor Format (GSF)
0437_20170824_232817_EX1707_MB-EM302.gsf.mb121.gz 27.83MB SAIC Generic Sensor Format (GSF)
0438_20170825_002816_EX1707_MB-EM302.gsf.mb121.gz 21.88MB SAIC Generic Sensor Format (GSF)
0439_20170825_005414_EX1707_MB-EM302.gsf.mb121.gz 20.82MB SAIC Generic Sensor Format (GSF)
0440_20170825_011602_EX1707_MB-EM302.gsf.mb121.gz 24.17MB SAIC Generic Sensor Format (GSF)
0441_20170825_021602_EX1707_MB-EM302.gsf.mb121.gz 11.84MB SAIC Generic Sensor Format (GSF)
0442_20170825_022148_EX1707_MB-EM302.gsf.mb121.gz 11.22MB SAIC Generic Sensor Format (GSF)
0443_20170825_022357_EX1707_MB-EM302.gsf.mb121.gz 29.36MB SAIC Generic Sensor Format (GSF)
0444_20170825_032351_EX1707_MB-EM302.gsf.mb121.gz 39.51MB SAIC Generic Sensor Format (GSF)
0445_20170825_042356_EX1707_MB-EM302.gsf.mb121.gz 34.44MB SAIC Generic Sensor Format (GSF)
0446_20170825_050951_EX1707_MB-EM302.gsf.mb121.gz 31.91MB SAIC Generic Sensor Format (GSF)
0447_20170825_060947_EX1707_MB-EM302.gsf.mb121.gz 24.41MB SAIC Generic Sensor Format (GSF)
0448_20170825_064757_EX1707_MB-EM302.gsf.mb121.gz 22.24MB SAIC Generic Sensor Format (GSF)
0449_20170825_070929_EX1707_MB-EM302.gsf.mb121.gz 33.00MB SAIC Generic Sensor Format (GSF)
0450_20170825_080930_EX1707_MB-EM302.gsf.mb121.gz 38.94MB SAIC Generic Sensor Format (GSF)
0451_20170825_090935_EX1707_MB-EM302.gsf.mb121.gz 39.63MB SAIC Generic Sensor Format (GSF)
0452_20170825_100937_EX1707_MB-EM302.gsf.mb121.gz 31.60MB SAIC Generic Sensor Format (GSF)
0453_20170825_110939_EX1707_MB-EM302.gsf.mb121.gz 15.92MB SAIC Generic Sensor Format (GSF)
0454_20170825_111755_EX1707_MB-EM302.gsf.mb121.gz 17.89MB SAIC Generic Sensor Format (GSF)
0455_20170825_114014_EX1707_MB-EM302.gsf.mb121.gz 32.60MB SAIC Generic Sensor Format (GSF)
0456_20170825_124018_EX1707_MB-EM302.gsf.mb121.gz 38.79MB SAIC Generic Sensor Format (GSF)
0457_20170825_134016_EX1707_MB-EM302.gsf.mb121.gz 38.40MB SAIC Generic Sensor Format (GSF)
0458_20170825_144018_EX1707_MB-EM302.gsf.mb121.gz 39.24MB SAIC Generic Sensor Format (GSF)
0459_20170825_154012_EX1707_MB-EM302.gsf.mb121.gz 38.55MB SAIC Generic Sensor Format (GSF)
0460_20170825_164015_EX1707_MB-EM302.gsf.mb121.gz 39.63MB SAIC Generic Sensor Format (GSF)
0461_20170825_174013_EX1707_MB-EM302.gsf.mb121.gz 39.29MB SAIC Generic Sensor Format (GSF)
0462_20170825_184014_EX1707_MB-EM302.gsf.mb121.gz 38.06MB SAIC Generic Sensor Format (GSF)
0463_20170825_194016_EX1707_MB-EM302.gsf.mb121.gz 30.81MB SAIC Generic Sensor Format (GSF)
0464_20170825_204014_EX1707_MB-EM302.gsf.mb121.gz 18.19MB SAIC Generic Sensor Format (GSF)
0465_20170825_205349_EX1707_MB-EM302.gsf.mb121.gz 20.20MB SAIC Generic Sensor Format (GSF)
0466_20170825_212031_EX1707_MB-EM302.gsf.mb121.gz 29.93MB SAIC Generic Sensor Format (GSF)
0467_20170825_222028_EX1707_MB-EM302.gsf.mb121.gz 24.70MB SAIC Generic Sensor Format (GSF)
0468_20170825_225620_EX1707_MB-EM302.gsf.mb121.gz 20.72MB SAIC Generic Sensor Format (GSF)
0469_20170825_231144_EX1707_MB-EM302.gsf.mb121.gz 32.16MB SAIC Generic Sensor Format (GSF)
0470_20170826_001142_EX1707_MB-EM302.gsf.mb121.gz 37.60MB SAIC Generic Sensor Format (GSF)
0471_20170826_011149_EX1707_MB-EM302.gsf.mb121.gz 27.29MB SAIC Generic Sensor Format (GSF)
0472_20170826_020226_EX1707_MB-EM302.gsf.mb121.gz 16.86MB SAIC Generic Sensor Format (GSF)
0473_20170826_020820_EX1707_MB-EM302.gsf.mb121.gz 17.71MB SAIC Generic Sensor Format (GSF)
0474_20170826_025109_EX1707_MB-EM302.gsf.mb121.gz 23.19MB SAIC Generic Sensor Format (GSF)
0475_20170826_031158_EX1707_MB-EM302.gsf.mb121.gz 28.82MB SAIC Generic Sensor Format (GSF)
0476_20170826_041153_EX1707_MB-EM302.gsf.mb121.gz 29.64MB SAIC Generic Sensor Format (GSF)
0477_20170826_045758_EX1707_MB-EM302.gsf.mb121.gz 22.00MB SAIC Generic Sensor Format (GSF)
0478_20170826_053503_EX1707_MB-EM302.gsf.mb121.gz 19.93MB SAIC Generic Sensor Format (GSF)
0479_20170826_054858_EX1707_MB-EM302.gsf.mb121.gz 31.81MB SAIC Generic Sensor Format (GSF)
0480_20170826_064851_EX1707_MB-EM302.gsf.mb121.gz 37.94MB SAIC Generic Sensor Format (GSF)
0481_20170826_074602_EX1707_MB-EM302.gsf.mb121.gz 36.84MB SAIC Generic Sensor Format (GSF)
0482_20170826_084557_EX1707_MB-EM302.gsf.mb121.gz 37.21MB SAIC Generic Sensor Format (GSF)
0483_20170826_094557_EX1707_MB-EM302.gsf.mb121.gz 38.44MB SAIC Generic Sensor Format (GSF)
0484_20170826_104558_EX1707_MB-EM302.gsf.mb121.gz 34.00MB SAIC Generic Sensor Format (GSF)
0485_20170826_114557_EX1707_MB-EM302.gsf.mb121.gz 23.46MB SAIC Generic Sensor Format (GSF)
0486_20170826_121627_EX1707_MB-EM302.gsf.mb121.gz 23.19MB SAIC Generic Sensor Format (GSF)
0487_20170826_124343_EX1707_MB-EM302.gsf.mb121.gz 30.39MB SAIC Generic Sensor Format (GSF)
0488_20170826_134344_EX1707_MB-EM302.gsf.mb121.gz 26.64MB SAIC Generic Sensor Format (GSF)
0489_20170826_142314_EX1707_MB-EM302.gsf.mb121.gz 24.74MB SAIC Generic Sensor Format (GSF)
0490_20170826_144928_EX1707_MB-EM302.gsf.mb121.gz 44.97MB SAIC Generic Sensor Format (GSF)
0491_20170826_154928_EX1707_MB-EM302.gsf.mb121.gz 47.31MB SAIC Generic Sensor Format (GSF)
0492_20170826_164929_EX1707_MB-EM302.gsf.mb121.gz 38.95MB SAIC Generic Sensor Format (GSF)
0493_20170826_174933_EX1707_MB-EM302.gsf.mb121.gz 31.06MB SAIC Generic Sensor Format (GSF)
0494_20170826_184926_EX1707_MB-EM302.gsf.mb121.gz 16.75MB SAIC Generic Sensor Format (GSF)
0495_20170826_185716_EX1707_MB-EM302.gsf.mb121.gz 18.11MB SAIC Generic Sensor Format (GSF)
0496_20170826_192439_EX1707_MB-EM302.gsf.mb121.gz 30.69MB SAIC Generic Sensor Format (GSF)
0497_20170826_201316_EX1707_MB-EM302.gsf.mb121.gz 37.22MB SAIC Generic Sensor Format (GSF)
0498_20170826_211322_EX1707_MB-EM302.gsf.mb121.gz 32.32MB SAIC Generic Sensor Format (GSF)
0499_20170826_221319_EX1707_MB-EM302.gsf.mb121.gz 17.59MB SAIC Generic Sensor Format (GSF)
0500_20170826_223045_EX1707_MB-EM302.gsf.mb121.gz 10.20MB SAIC Generic Sensor Format (GSF)
0501_20170826_224000_EX1707_MB-EM302.gsf.mb121.gz 11.92MB SAIC Generic Sensor Format (GSF)
0502_20170826_224958_EX1707_MB-EM302.gsf.mb121.gz 14.95MB SAIC Generic Sensor Format (GSF)
0503_20170826_231754_EX1707_MB-EM302.gsf.mb121.gz 13.28MB SAIC Generic Sensor Format (GSF)
0504_20170826_233904_EX1707_MB-EM302.gsf.mb121.gz 7.06MB SAIC Generic Sensor Format (GSF)
0505_20170826_234701_EX1707_MB-EM302.gsf.mb121.gz 6.44MB SAIC Generic Sensor Format (GSF)
0506_20170826_235202_EX1707_MB-EM302.gsf.mb121.gz 15.43MB SAIC Generic Sensor Format (GSF)
0507_20170827_001252_EX1707_MB-EM302.gsf.mb121.gz 28.34MB SAIC Generic Sensor Format (GSF)
0508_20170827_005759_EX1707_MB-EM302.gsf.mb121.gz 36.44MB SAIC Generic Sensor Format (GSF)
0509_20170827_015755_EX1707_MB-EM302.gsf.mb121.gz 39.63MB SAIC Generic Sensor Format (GSF)
0510_20170827_025754_EX1707_MB-EM302.gsf.mb121.gz 30.95MB SAIC Generic Sensor Format (GSF)
0511_20170827_035800_EX1707_MB-EM302.gsf.mb121.gz 17.10MB SAIC Generic Sensor Format (GSF)
0512_20170827_040551_EX1707_MB-EM302.gsf.mb121.gz 20.69MB SAIC Generic Sensor Format (GSF)
0513_20170827_043627_EX1707_MB-EM302.gsf.mb121.gz 34.15MB SAIC Generic Sensor Format (GSF)
0514_20170827_053628_EX1707_MB-EM302.gsf.mb121.gz 39.53MB SAIC Generic Sensor Format (GSF)
0515_20170827_063630_EX1707_MB-EM302.gsf.mb121.gz 40.14MB SAIC Generic Sensor Format (GSF)
0516_20170827_073626_EX1707_MB-EM302.gsf.mb121.gz 38.80MB SAIC Generic Sensor Format (GSF)
0517_20170827_083629_EX1707_MB-EM302.gsf.mb121.gz 38.95MB SAIC Generic Sensor Format (GSF)
0518_20170827_093625_EX1707_MB-EM302.gsf.mb121.gz 28.91MB SAIC Generic Sensor Format (GSF)
0519_20170827_103621_EX1707_MB-EM302.gsf.mb121.gz 15.60MB SAIC Generic Sensor Format (GSF)
0520_20170827_104119_EX1707_MB-EM302.gsf.mb121.gz 19.14MB SAIC Generic Sensor Format (GSF)
0521_20170827_110900_EX1707_MB-EM302.gsf.mb121.gz 26.89MB SAIC Generic Sensor Format (GSF)
0522_20170827_120852_EX1707_MB-EM302.gsf.mb121.gz 19.83MB SAIC Generic Sensor Format (GSF)
0523_20170827_122729_EX1707_MB-EM302.gsf.mb121.gz 20.85MB SAIC Generic Sensor Format (GSF)
0524_20170827_125308_EX1707_MB-EM302.gsf.mb121.gz 39.50MB SAIC Generic Sensor Format (GSF)
0525_20170827_135308_EX1707_MB-EM302.gsf.mb121.gz 36.48MB SAIC Generic Sensor Format (GSF)
0526_20170827_145312_EX1707_MB-EM302.gsf.mb121.gz 28.69MB SAIC Generic Sensor Format (GSF)
0527_20170827_153834_EX1707_MB-EM302.gsf.mb121.gz 16.43MB SAIC Generic Sensor Format (GSF)
0528_20170827_160301_EX1707_MB-EM302.gsf.mb121.gz 14.53MB SAIC Generic Sensor Format (GSF)
0529_20170827_160537_EX1707_MB-EM302.gsf.mb121.gz 31.27MB SAIC Generic Sensor Format (GSF)
0530_20170827_170542_EX1707_MB-EM302.gsf.mb121.gz 33.24MB SAIC Generic Sensor Format (GSF)
0531_20170827_180533_EX1707_MB-EM302.gsf.mb121.gz 22.66MB SAIC Generic Sensor Format (GSF)
0532_20170827_183051_EX1707_MB-EM302.gsf.mb121.gz 23.30MB SAIC Generic Sensor Format (GSF)
0533_20170827_190106_EX1707_MB-EM302.gsf.mb121.gz 31.06MB SAIC Generic Sensor Format (GSF)
0534_20170827_200107_EX1707_MB-EM302.gsf.mb121.gz 24.61MB SAIC Generic Sensor Format (GSF)
0535_20170827_204539_EX1707_MB-EM302.gsf.mb121.gz 13.81MB SAIC Generic Sensor Format (GSF)
0536_20170827_204906_EX1707_MB-EM302.gsf.mb121.gz 17.36MB SAIC Generic Sensor Format (GSF)
0537_20170827_212348_EX1707_MB-EM302.gsf.mb121.gz 27.28MB SAIC Generic Sensor Format (GSF)
0538_20170827_220334_EX1707_MB-EM302.gsf.mb121.gz 36.12MB SAIC Generic Sensor Format (GSF)
0539_20170827_230330_EX1707_MB-EM302.gsf.mb121.gz 34.10MB SAIC Generic Sensor Format (GSF)
0540_20170828_000331_EX1707_MB-EM302.gsf.mb121.gz 22.87MB SAIC Generic Sensor Format (GSF)
0541_20170828_001546_EX1707_MB-EM302.gsf.mb121.gz 39.86MB SAIC Generic Sensor Format (GSF)
0542_20170828_010859_EX1707_MB-EM302.gsf.mb121.gz 24.79MB SAIC Generic Sensor Format (GSF)
0543_20170828_011838_EX1707_MB-EM302.gsf.mb121.gz 32.30MB SAIC Generic Sensor Format (GSF)
0544_20170828_021837_EX1707_MB-EM302.gsf.mb121.gz 37.88MB SAIC Generic Sensor Format (GSF)
0545_20170828_031827_EX1707_MB-EM302.gsf.mb121.gz 37.93MB SAIC Generic Sensor Format (GSF)
0546_20170828_041826_EX1707_MB-EM302.gsf.mb121.gz 37.81MB SAIC Generic Sensor Format (GSF)
0547_20170828_051820_EX1707_MB-EM302.gsf.mb121.gz 37.91MB SAIC Generic Sensor Format (GSF)
0548_20170828_061828_EX1707_MB-EM302.gsf.mb121.gz 37.85MB SAIC Generic Sensor Format (GSF)
0549_20170828_071823_EX1707_MB-EM302.gsf.mb121.gz 37.83MB SAIC Generic Sensor Format (GSF)
0550_20170828_081826_EX1707_MB-EM302.gsf.mb121.gz 37.78MB SAIC Generic Sensor Format (GSF)
0551_20170828_091827_EX1707_MB-EM302.gsf.mb121.gz 37.83MB SAIC Generic Sensor Format (GSF)
0552_20170828_101827_EX1707_MB-EM302.gsf.mb121.gz 37.87MB SAIC Generic Sensor Format (GSF)
0553_20170828_111823_EX1707_MB-EM302.gsf.mb121.gz 37.95MB SAIC Generic Sensor Format (GSF)
0554_20170828_121820_EX1707_MB-EM302.gsf.mb121.gz 38.04MB SAIC Generic Sensor Format (GSF)
0555_20170828_131823_EX1707_MB-EM302.gsf.mb121.gz 30.36MB SAIC Generic Sensor Format (GSF)
0556_20170828_141821_EX1707_MB-EM302.gsf.mb121.gz 22.43MB SAIC Generic Sensor Format (GSF)
0557_20170828_142805_EX1707_MB-EM302.gsf.mb121.gz 23.71MB SAIC Generic Sensor Format (GSF)
0558_20170828_152804_EX1707_MB-EM302.gsf.mb121.gz 17.88MB SAIC Generic Sensor Format (GSF)
0559_20170828_154214_EX1707_MB-EM302.gsf.mb121.gz 19.19MB SAIC Generic Sensor Format (GSF)
0560_20170828_160459_EX1707_MB-EM302.gsf.mb121.gz 38.58MB SAIC Generic Sensor Format (GSF)
0561_20170828_170458_EX1707_MB-EM302.gsf.mb121.gz 13.28MB SAIC Generic Sensor Format (GSF)
0562_20170828_171341_EX1707_MB-EM302.gsf.mb121.gz 6.51MB SAIC Generic Sensor Format (GSF)
0563_20170828_171804_EX1707_MB-EM302.gsf.mb121.gz 13.01MB SAIC Generic Sensor Format (GSF)
0564_20170828_174050_EX1707_MB-EM302.gsf.mb121.gz 16.16MB SAIC Generic Sensor Format (GSF)
0565_20170828_181258_EX1707_MB-EM302.gsf.mb121.gz 18.20MB SAIC Generic Sensor Format (GSF)
0566_20170828_182447_EX1707_MB-EM302.gsf.mb121.gz 15.86MB SAIC Generic Sensor Format (GSF)
0567_20170828_190443_EX1707_MB-EM302.gsf.mb121.gz 16.35MB SAIC Generic Sensor Format (GSF)
0568_20170828_190542_EX1707_MB-EM302.gsf.mb121.gz 28.39MB SAIC Generic Sensor Format (GSF)
0569_20170828_200547_EX1707_MB-EM302.gsf.mb121.gz 37.07MB SAIC Generic Sensor Format (GSF)
0570_20170828_210544_EX1707_MB-EM302.gsf.mb121.gz 30.31MB SAIC Generic Sensor Format (GSF)
0571_20170828_220541_EX1707_MB-EM302.gsf.mb121.gz 17.58MB SAIC Generic Sensor Format (GSF)
0572_20170828_222312_EX1707_MB-EM302.gsf.mb121.gz 11.52MB SAIC Generic Sensor Format (GSF)
0573_20170828_223914_EX1707_MB-EM302.gsf.mb121.gz 10.76MB SAIC Generic Sensor Format (GSF)
0574_20170828_230122_EX1707_MB-EM302.gsf.mb121.gz 8.24MB SAIC Generic Sensor Format (GSF)
0575_20170828_230419_EX1707_MB-EM302.gsf.mb121.gz 10.00MB SAIC Generic Sensor Format (GSF)
0576_20170828_232638_EX1707_MB-EM302.gsf.mb121.gz 17.73MB SAIC Generic Sensor Format (GSF)
0577_20170828_233743_EX1707_MB-EM302.gsf.mb121.gz 27.11MB SAIC Generic Sensor Format (GSF)
0578_20170829_002611_EX1707_MB-EM302.gsf.mb121.gz 35.83MB SAIC Generic Sensor Format (GSF)
0579_20170829_012610_EX1707_MB-EM302.gsf.mb121.gz 37.86MB SAIC Generic Sensor Format (GSF)
0580_20170829_022611_EX1707_MB-EM302.gsf.mb121.gz 37.53MB SAIC Generic Sensor Format (GSF)
0581_20170829_032611_EX1707_MB-EM302.gsf.mb121.gz 32.57MB SAIC Generic Sensor Format (GSF)
0582_20170829_042131_EX1707_MB-EM302.gsf.mb121.gz 34.16MB SAIC Generic Sensor Format (GSF)
0583_20170829_045212_EX1707_MB-EM302.gsf.mb121.gz 29.10MB SAIC Generic Sensor Format (GSF)
0584_20170829_053641_EX1707_MB-EM302.gsf.mb121.gz 33.40MB SAIC Generic Sensor Format (GSF)
0585_20170829_063638_EX1707_MB-EM302.gsf.mb121.gz 31.32MB SAIC Generic Sensor Format (GSF)
0586_20170829_072435_EX1707_MB-EM302.gsf.mb121.gz 24.72MB SAIC Generic Sensor Format (GSF)
0587_20170829_080737_EX1707_MB-EM302.gsf.mb121.gz 19.41MB SAIC Generic Sensor Format (GSF)
0588_20170829_082350_EX1707_MB-EM302.gsf.mb121.gz 18.75MB SAIC Generic Sensor Format (GSF)
0589_20170829_084346_EX1707_MB-EM302.gsf.mb121.gz 27.20MB SAIC Generic Sensor Format (GSF)
0590_20170829_094340_EX1707_MB-EM302.gsf.mb121.gz 20.11MB SAIC Generic Sensor Format (GSF)
0591_20170829_100946_EX1707_MB-EM302.gsf.mb121.gz 17.31MB SAIC Generic Sensor Format (GSF)
0592_20170829_102011_EX1707_MB-EM302.gsf.mb121.gz 42.36MB SAIC Generic Sensor Format (GSF)
0593_20170829_112005_EX1707_MB-EM302.gsf.mb121.gz 39.13MB SAIC Generic Sensor Format (GSF)
0594_20170829_122006_EX1707_MB-EM302.gsf.mb121.gz 26.64MB SAIC Generic Sensor Format (GSF)
0595_20170829_124328_EX1707_MB-EM302.gsf.mb121.gz 26.18MB SAIC Generic Sensor Format (GSF)
0596_20170829_130623_EX1707_MB-EM302.gsf.mb121.gz 49.06MB SAIC Generic Sensor Format (GSF)
0597_20170829_140630_EX1707_MB-EM302.gsf.mb121.gz 44.29MB SAIC Generic Sensor Format (GSF)
0598_20170829_150629_EX1707_MB-EM302.gsf.mb121.gz 24.09MB SAIC Generic Sensor Format (GSF)
0599_20170829_152553_EX1707_MB-EM302.gsf.mb121.gz 20.04MB SAIC Generic Sensor Format (GSF)
0600_20170829_154702_EX1707_MB-EM302.gsf.mb121.gz 48.83MB SAIC Generic Sensor Format (GSF)
0601_20170829_164702_EX1707_MB-EM302.gsf.mb121.gz 41.16MB SAIC Generic Sensor Format (GSF)
0602_20170829_174704_EX1707_MB-EM302.gsf.mb121.gz 27.31MB SAIC Generic Sensor Format (GSF)
0603_20170829_181731_EX1707_MB-EM302.gsf.mb121.gz 12.13MB SAIC Generic Sensor Format (GSF)
0604_20170829_182133_EX1707_MB-EM302.gsf.mb121.gz 20.46MB SAIC Generic Sensor Format (GSF)
0605_20170829_185357_EX1707_MB-EM302.gsf.mb121.gz 25.51MB SAIC Generic Sensor Format (GSF)
0606_20170829_195342_EX1707_MB-EM302.gsf.mb121.gz 12.91MB SAIC Generic Sensor Format (GSF)
0607_20170829_200215_EX1707_MB-EM302.gsf.mb121.gz 12.12MB SAIC Generic Sensor Format (GSF)
0608_20170829_200538_EX1707_MB-EM302.gsf.mb121.gz 24.03MB SAIC Generic Sensor Format (GSF)
0609_20170829_210541_EX1707_MB-EM302.gsf.mb121.gz 23.02MB SAIC Generic Sensor Format (GSF)
0610_20170829_212544_EX1707_MB-EM302.gsf.mb121.gz 26.28MB SAIC Generic Sensor Format (GSF)
0611_20170829_220845_EX1707_MB-EM302.gsf.mb121.gz 35.81MB SAIC Generic Sensor Format (GSF)
0612_20170829_230833_EX1707_MB-EM302.gsf.mb121.gz 38.55MB SAIC Generic Sensor Format (GSF)
0613_20170830_000836_EX1707_MB-EM302.gsf.mb121.gz 33.11MB SAIC Generic Sensor Format (GSF)
0614_20170830_010833_EX1707_MB-EM302.gsf.mb121.gz 21.38MB SAIC Generic Sensor Format (GSF)
0615_20170830_013455_EX1707_MB-EM302.gsf.mb121.gz 21.09MB SAIC Generic Sensor Format (GSF)
0616_20170830_015454_EX1707_MB-EM302.gsf.mb121.gz 25.27MB SAIC Generic Sensor Format (GSF)
0617_20170830_025455_EX1707_MB-EM302.gsf.mb121.gz 13.05MB SAIC Generic Sensor Format (GSF)
0618_20170830_025751_EX1707_MB-EM302.gsf.mb121.gz 13.08MB SAIC Generic Sensor Format (GSF)
0619_20170830_031252_EX1707_MB-EM302.gsf.mb121.gz 39.43MB SAIC Generic Sensor Format (GSF)
0620_20170830_035720_EX1707_MB-EM302.gsf.mb121.gz 29.46MB SAIC Generic Sensor Format (GSF)
0621_20170830_045724_EX1707_MB-EM302.gsf.mb121.gz 16.03MB SAIC Generic Sensor Format (GSF)
0622_20170830_050800_EX1707_MB-EM302.gsf.mb121.gz 17.06MB SAIC Generic Sensor Format (GSF)
0623_20170830_052522_EX1707_MB-EM302.gsf.mb121.gz 24.19MB SAIC Generic Sensor Format (GSF)
0624_20170830_062515_EX1707_MB-EM302.gsf.mb121.gz 23.66MB SAIC Generic Sensor Format (GSF)
0625_20170830_063904_EX1707_MB-EM302.gsf.mb121.gz 31.97MB SAIC Generic Sensor Format (GSF)
0626_20170830_073855_EX1707_MB-EM302.gsf.mb121.gz 38.83MB SAIC Generic Sensor Format (GSF)
0627_20170830_083856_EX1707_MB-EM302.gsf.mb121.gz 38.77MB SAIC Generic Sensor Format (GSF)
0628_20170830_093856_EX1707_MB-EM302.gsf.mb121.gz 39.13MB SAIC Generic Sensor Format (GSF)
0629_20170830_103854_EX1707_MB-EM302.gsf.mb121.gz 39.07MB SAIC Generic Sensor Format (GSF)
0630_20170830_113857_EX1707_MB-EM302.gsf.mb121.gz 39.06MB SAIC Generic Sensor Format (GSF)
0631_20170830_123901_EX1707_MB-EM302.gsf.mb121.gz 39.12MB SAIC Generic Sensor Format (GSF)
0632_20170830_133900_EX1707_MB-EM302.gsf.mb121.gz 35.90MB SAIC Generic Sensor Format (GSF)
0633_20170830_143855_EX1707_MB-EM302.gsf.mb121.gz 32.12MB SAIC Generic Sensor Format (GSF)
0634_20170830_151752_EX1707_MB-EM302.gsf.mb121.gz 36.01MB SAIC Generic Sensor Format (GSF)
0635_20170830_161757_EX1707_MB-EM302.gsf.mb121.gz 39.60MB SAIC Generic Sensor Format (GSF)
0636_20170830_171757_EX1707_MB-EM302.gsf.mb121.gz 38.98MB SAIC Generic Sensor Format (GSF)
0637_20170830_181753_EX1707_MB-EM302.gsf.mb121.gz 38.97MB SAIC Generic Sensor Format (GSF)
0638_20170830_191753_EX1707_MB-EM302.gsf.mb121.gz 39.01MB SAIC Generic Sensor Format (GSF)
0639_20170830_201756_EX1707_MB-EM302.gsf.mb121.gz 39.04MB SAIC Generic Sensor Format (GSF)
0640_20170830_211752_EX1707_MB-EM302.gsf.mb121.gz 34.38MB SAIC Generic Sensor Format (GSF)
0641_20170830_221756_EX1707_MB-EM302.gsf.mb121.gz 20.02MB SAIC Generic Sensor Format (GSF)
0642_20170830_224840_EX1707_MB-EM302.gsf.mb121.gz 30.65MB SAIC Generic Sensor Format (GSF)
0643_20170830_234824_EX1707_MB-EM302.gsf.mb121.gz 39.73MB SAIC Generic Sensor Format (GSF)
0644_20170831_004825_EX1707_MB-EM302.gsf.mb121.gz 39.44MB SAIC Generic Sensor Format (GSF)
0645_20170831_014825_EX1707_MB-EM302.gsf.mb121.gz 32.68MB SAIC Generic Sensor Format (GSF)
0646_20170831_024829_EX1707_MB-EM302.gsf.mb121.gz 25.76MB SAIC Generic Sensor Format (GSF)
0647_20170831_030644_EX1707_MB-EM302.gsf.mb121.gz 51.54MB SAIC Generic Sensor Format (GSF)
0648_20170831_040629_EX1707_MB-EM302.gsf.mb121.gz 63.73MB SAIC Generic Sensor Format (GSF)
0649_20170831_050633_EX1707_MB-EM302.gsf.mb121.gz 70.36MB SAIC Generic Sensor Format (GSF)
0650_20170831_060631_EX1707_MB-EM302.gsf.mb121.gz 58.75MB SAIC Generic Sensor Format (GSF)
0651_20170831_070635_EX1707_MB-EM302.gsf.mb121.gz 28.79MB SAIC Generic Sensor Format (GSF)
0652_20170831_072118_EX1707_MB-EM302.gsf.mb121.gz 50.26MB SAIC Generic Sensor Format (GSF)
0653_20170831_082115_EX1707_MB-EM302.gsf.mb121.gz 57.53MB SAIC Generic Sensor Format (GSF)
0654_20170831_092117_EX1707_MB-EM302.gsf.mb121.gz 54.85MB SAIC Generic Sensor Format (GSF)
0655_20170831_102118_EX1707_MB-EM302.gsf.mb121.gz 51.97MB SAIC Generic Sensor Format (GSF)
0656_20170831_112117_EX1707_MB-EM302.gsf.mb121.gz 32.21MB SAIC Generic Sensor Format (GSF)
0657_20170831_120914_EX1707_MB-EM302.gsf.mb121.gz 20.98MB SAIC Generic Sensor Format (GSF)
0658_20170831_121845_EX1707_MB-EM302.gsf.mb121.gz 46.05MB SAIC Generic Sensor Format (GSF)
0659_20170831_131843_EX1707_MB-EM302.gsf.mb121.gz 99.31MB SAIC Generic Sensor Format (GSF)
0660_20170831_141005_EX1707_MB-EM302.gsf.mb121.gz 176.05MB SAIC Generic Sensor Format (GSF)
0661_20170831_151004_EX1707_MB-EM302.gsf.mb121.gz 126.74MB SAIC Generic Sensor Format (GSF)

Products: 60

Files File Size Description
EX1707_MB_FNL_AllData_100m_WGS84-interpolated.sd.gz 376.05MB Fledermaus surface
EX1707_MB_FNL_AllData_100m_WGS84.asc.gz 209.38MB ESRI Arc ASCII
EX1707_MB_FNL_AllData_100m_WGS84.tif.gz 24.51MB GeoTIFF survey image
EX1707_MB_FNL_AllData_100m_WGS84.xyz.gz 188.92MB xyz grid file provided by the originator
EX1707_MB_FNL_AllData_100m_WGS84_interpolated.kmz.gz 19.37MB Compressed Keyhole Markup Language file
EX1707_MB_FNL_DebussySeamount.scene.gz 11.45MB Fledermaus Scene file
EX1707_MB_FNL_DebussySeamount_60M_WGS84-interpolated-slope.sd.gz 4.86MB Fledermaus surface
EX1707_MB_FNL_DebussySeamount_60M_WGS84-interpolated.asc.gz 3.09MB ESRI Arc ASCII
EX1707_MB_FNL_DebussySeamount_60M_WGS84-interpolated.sd.gz 3.67MB Fledermaus surface
EX1707_MB_FNL_DebussySeamount_60M_WGS84-interpolated.tif.gz 30.47MB GeoTIFF survey image
EX1707_MB_FNL_DebussySeamount_60M_WGS84-interpolated.xyz.gz 9.55MB xyz grid file provided by the originator
EX1707_MB_FNL_DebussySeamount_60M_WGS84_interpolated.kmz.gz 1.08MB Compressed Keyhole Markup Language file
EX1707_MB_FNL_DebussySeamount_60M_WGS84_interpolated.tif.gz 1.25MB GeoTIFF survey image
EX1707_MB_FNL_MurrayFractureZone_75M_WGS84-slope.sd.gz 25.47MB Fledermaus surface
EX1707_MB_FNL_MurrayFractureZone_75M_WGS84.asc.gz 23.93MB ESRI Arc ASCII
EX1707_MB_FNL_MurrayFractureZone_75M_WGS84.kmz.gz 9.31MB Compressed Keyhole Markup Language file
EX1707_MB_FNL_MurrayFractureZone_75M_WGS84.scene.gz 46.06MB Fledermaus Scene file
EX1707_MB_FNL_MurrayFractureZone_75M_WGS84.sd.gz 19.41MB Fledermaus surface
EX1707_MB_FNL_MurrayFractureZone_75M_WGS84.tif.gz 10.73MB GeoTIFF survey image
EX1707_MB_FNL_MurrayFractureZone_75M_WGS84.xyz.gz 88.72MB xyz grid file provided by the originator
EX1707_MB_FNL_MussorgskySeamount.scene.gz 8.53MB Fledermaus Scene file
EX1707_MB_FNL_MussorgskySeamount_60M_WGS84_interpolated.tif.gz 0.92MB GeoTIFF survey image
EX1707_MB_FNL_MussorgskySeamount_60m_WGS84-interpolated-slope.sd.gz 4.43MB Fledermaus surface
EX1707_MB_FNL_MussorgskySeamount_60m_WGS84-interpolated.asc.gz 2.57MB ESRI Arc ASCII
EX1707_MB_FNL_MussorgskySeamount_60m_WGS84-interpolated.sd.gz 3.41MB Fledermaus surface
EX1707_MB_FNL_MussorgskySeamount_60m_WGS84-interpolated.tif.gz 20.83MB GeoTIFF survey image
EX1707_MB_FNL_MussorgskySeamount_60m_WGS84-interpolated.xyz.gz 7.09MB xyz grid file provided by the originator
EX1707_MB_FNL_MussorgskySeamount_60m_WGS84_interpolated.kmz.gz 0.80MB Compressed Keyhole Markup Language file
EX1707_MB_FNL_NorthernSeamountGroup.scene.gz 132.21MB Fledermaus Scene file
EX1707_MB_FNL_NorthernSeamountGroup_60M_WGS84-interpolated-slope.sd.gz 77.12MB Fledermaus surface
EX1707_MB_FNL_NorthernSeamountGroup_60M_WGS84-interpolated.asc.gz 51.66MB ESRI Arc ASCII
EX1707_MB_FNL_NorthernSeamountGroup_60M_WGS84-interpolated.sd.gz 63.56MB Fledermaus surface
EX1707_MB_FNL_NorthernSeamountGroup_60M_WGS84-interpolated.tif.gz 62.52MB GeoTIFF survey image
EX1707_MB_FNL_NorthernSeamountGroup_60M_WGS84-interpolated.xyz.gz 137.09MB xyz grid file provided by the originator
EX1707_MB_FNL_NorthernSeamountGroup_60M_WGS84_interpolated.kmz.gz 14.51MB Compressed Keyhole Markup Language file
EX1707_MB_FNL_NorthernSeamountGroup_60M_WGS84_interpolated.tif.gz 16.96MB GeoTIFF survey image
EX1707_MB_FNL_PaganiniSeamount.scene.gz 9.28MB Fledermaus Scene file
EX1707_MB_FNL_PaganiniSeamount_60M_WGS84-interpolate.asc.gz 2.53MB ESRI Arc ASCII
EX1707_MB_FNL_PaganiniSeamount_60M_WGS84-interpolated-slope.sd.gz 4.43MB Fledermaus surface
EX1707_MB_FNL_PaganiniSeamount_60M_WGS84-interpolated.sd.gz 3.40MB Fledermaus surface
EX1707_MB_FNL_PaganiniSeamount_60M_WGS84-interpolated.tif.gz 23.41MB GeoTIFF survey image
EX1707_MB_FNL_PaganiniSeamount_60M_WGS84-interpolated.xyz.gz 6.98MB xyz grid file provided by the originator
EX1707_MB_FNL_PaganiniSeamount_60M_WGS84_interpolated.kmz.gz 0.82MB Compressed Keyhole Markup Language file
EX1707_MB_FNL_PaganiniSeamount_60M_WGS84_interpolated.tif.gz 0.96MB GeoTIFF survey image
EX1707_MB_FNL_SchumannSeamount.scene.gz 33.23MB Fledermaus Scene file
EX1707_MB_FNL_SchumannSeamount.sd.gz 9.03MB Fledermaus surface
EX1707_MB_FNL_SchumannSeamount_60M_WGS84-interpolated-slope.sd.gz 9.19MB Fledermaus surface
EX1707_MB_FNL_SchumannSeamount_60M_WGS84-interpolated.asc.gz 5.87MB ESRI Arc ASCII
EX1707_MB_FNL_SchumannSeamount_60M_WGS84-interpolated.sd.gz 7.18MB Fledermaus surface
EX1707_MB_FNL_SchumannSeamount_60M_WGS84-interpolated.tif.gz 2.07MB GeoTIFF survey image
EX1707_MB_FNL_SchumannSeamount_60M_WGS84-interpolated.xyz.gz 16.96MB xyz grid file provided by the originator
EX1707_MB_FNL_SchumannSeamount_60M_WGS84_interpolated.kmz.gz 1.85MB Compressed Keyhole Markup Language file
EX1707_MB_FNL_SchumannSeamount_60M_WGS84_interpolated.tif.gz 2.09MB GeoTIFF survey image
EX1707_MB_FNL_SibeliusSeamount.scene.gz 11.94MB Fledermaus Scene file
EX1707_MB_FNL_SibeliusSeamount_60M_WGS84-interpolated-slope.sd.gz 5.26MB Fledermaus surface
EX1707_MB_FNL_SibeliusSeamount_60M_WGS84-interpolated.asc.gz 3.59MB ESRI Arc ASCII
EX1707_MB_FNL_SibeliusSeamount_60M_WGS84-interpolated.sd.gz 4.09MB Fledermaus surface
EX1707_MB_FNL_SibeliusSeamount_60M_WGS84-interpolated.tif.gz 1.40MB GeoTIFF survey image
EX1707_MB_FNL_SibeliusSeamount_60M_WGS84-interpolated.xyz.gz 10.98MB xyz grid file provided by the originator
EX1707_MB_FNL_SibeliusSeamount_60M_WGS84_interpolated.kmz.gz 1.23MB Compressed Keyhole Markup Language file

Metadata Files: 7

Files File Size Description
EX1707_COLLECTION_UNRESOLVED.xml 13.0KB XML metadata file
EX1707_Multibeam_COLLECTION_UNRESOLVED.xml 19.8KB XML metadata file
EX1707_Profile_COLLECTION_UNRESOLVED.xml 15.0KB XML metadata file
mb_bag_info.tar.gz 80.0KB Additional cruise information
v1_file_metadata.tar.gz 191.4KB File level metadata
wcp_bag_info.tar.gz 7.8KB Additional cruise information
v2_file_metadata.tar.gz 216.1KB File level metadata

Ancillary Files: 3

Files File Size Description
asvp.tar.gz 440.3KB Sound Speed Profiles (SSP or SVP)
support.tar.gz 11.11MB Supporting data
xbt.tar.gz 2.24MB Expendable Bathythermograph (XBT) data

Water Column Sonar Data

Water Column Sonar Data Available: WCSD Map Viewer